Observation data for Hobbs on 01/20/2019      Previous  Date  Next       Current Mesonet Observations  Soil Data  Daily Summary Page  Observations in Plain Language
KHO1 200600Z 19005KT 02/M07 A303 RMK A01 T00161072  RH  052%=      5-min Rain = 0
KHO1 200601Z 19004KT 02/M07 A303 RMK A01 T00161072  RH  052%=      5-min Rain = 0
KHO1 200602Z 19004KT 02/M07 A303 RMK A01 T00161072  RH  052%=      5-min Rain = 0
KHO1 200603Z 19004KT 02/M07 A303 RMK A01 T00161072  RH  052%=      5-min Rain = 0
KHO1 200604Z 19004KT 02/M07 A303 RMK A01 T00161073  RH  052%=      5-min Rain = 0
KHO1 200605Z 19004KT 02/M07 A303 RMK A01 T00161073  RH  052%=      5-min Rain = 0
KHO1 200606Z 19005KT 02/M07 A303 RMK A01 T00161073  RH  052%=      5-min Rain = 0
KHO1 200607Z 20005KT 02/M07 A303 RMK A01 T00161072  RH  052%=      5-min Rain = 0
KHO1 200608Z 20005KT 02/M07 A303 RMK A01 T00161072  RH  052%=      5-min Rain = 0
KHO1 200609Z 20005KT 02/M07 A303 RMK A01 T00161072  RH  052%=      5-min Rain = 0
KHO1 200610Z 20004KT 02/M07 A303 RMK A01 T00161073  RH  052%=      5-min Rain = 0
KHO1 200611Z 20004KT 02/M07 A303 RMK A01 T00161073  RH  052%=      5-min Rain = 0
KHO1 200612Z 20004KT 02/M07 A303 RMK A01 T00161073  RH  052%=      5-min Rain = 0
KHO1 200613Z 20004KT 02/M07 A303 RMK A01 T00161073  RH  052%=      5-min Rain = 0
KHO1 200614Z 20004KT 02/M07 A303 RMK A01 T00161073  RH  052%=      5-min Rain = 0
KHO1 200615Z 20004KT 02/M07 A303 RMK A01 T00161073  RH  052%=      5-min Rain = 0
KHO1 200616Z 20004KT 02/M07 A303 RMK A01 T00171073  RH  051%=      5-min Rain = 0
KHO1 200617Z 21004KT 02/M07 A303 RMK A01 T00171073  RH  051%=      5-min Rain = 0
KHO1 200618Z 21004KT 02/M07 A303 RMK A01 T00171073  RH  051%=      5-min Rain = 0
KHO1 200619Z 21004KT 02/M07 A303 RMK A01 T00171072  RH  052%=      5-min Rain = 0
KHO1 200620Z 21004KT 02/M07 A303 RMK A01 T00171072  RH  052%=      5-min Rain = 0
KHO1 200621Z 22004KT 02/M07 A303 RMK A01 T00171071  RH  052%=      5-min Rain = 0
KHO1 200622Z 22004KT 02/M07 A303 RMK A01 T00171070  RH  052%=      5-min Rain = 0
KHO1 200623Z 22004KT 02/M07 A303 RMK A01 T00161069  RH  053%=      5-min Rain = 0
KHO1 200624Z 22004KT 02/M07 A303 RMK A01 T00151069  RH  054%=      5-min Rain = 0
KHO1 200625Z 22004KT 01/M07 A303 RMK A01 T00141068  RH  054%=      5-min Rain = 0
KHO1 200626Z 22004KT 01/M07 A303 RMK A01 T00141068  RH  054%=      5-min Rain = 0
KHO1 200627Z 22005KT 01/M07 A303 RMK A01 T00141068  RH  054%=      5-min Rain = 0
KHO1 200628Z 22005KT 01/M07 A303 RMK A01 T00141069  RH  054%=      5-min Rain = 0
KHO1 200629Z 22005KT 02/M07 A303 RMK A01 T00151068  RH  054%=      5-min Rain = 0
KHO1 200630Z 22005KT 02/M07 A303 RMK A01 T00161068  RH  054%=      5-min Rain = 0
KHO1 200631Z 22005KT 02/M07 A303 RMK A01 T00161067  RH  054%=      5-min Rain = 0
KHO1 200632Z 22005KT 02/M07 A303 RMK A01 T00161067  RH  054%=      5-min Rain = 0
KHO1 200633Z 22005KT 02/M07 A303 RMK A01 T00151067  RH  054%=      5-min Rain = 0
KHO1 200634Z 22005KT 01/M07 A303 RMK A01 T00141067  RH  055%=      5-min Rain = 0
KHO1 200635Z 22005KT 01/M07 A303 RMK A01 T00141066  RH  055%=      5-min Rain = 0
KHO1 200636Z 22005KT 01/M07 A303 RMK A01 T00141066  RH  055%=      5-min Rain = 0
KHO1 200637Z 22005KT 01/M07 A303 RMK A01 T00141066  RH  055%=      5-min Rain = 0
KHO1 200638Z 22004KT 01/M07 A303 RMK A01 T00141066  RH  055%=      5-min Rain = 0
KHO1 200639Z 22004KT 02/M07 A303 RMK A01 T00151066  RH  055%=      5-min Rain = 0
KHO1 200640Z 22005KT 02/M07 A303 RMK A01 T00161066  RH  055%=      5-min Rain = 0
KHO1 200641Z 22005KT 02/M07 A303 RMK A01 T00171066  RH  054%=      5-min Rain = 0
KHO1 200642Z 22005KT 02/M07 A303 RMK A01 T00171067  RH  054%=      5-min Rain = 0
KHO1 200643Z 22005KT 02/M07 A303 RMK A01 T00171067  RH  054%=      5-min Rain = 0
KHO1 200644Z 22004KT 02/M07 A303 RMK A01 T00161067  RH  054%=      5-min Rain = 0
KHO1 200645Z 22004KT 02/M07 A303 RMK A01 T00161066  RH  054%=      5-min Rain = 0
KHO1 200646Z 22004KT 02/M07 A303 RMK A01 T00161066  RH  054%=      5-min Rain = 0
KHO1 200647Z 22005KT 02/M07 A3031 RMK A01 T00151066  RH  055%=      5-min Rain = 0
KHO1 200648Z 22005KT 02/M07 A3031 RMK A01 T00151066  RH  055%=      5-min Rain = 0
KHO1 200649Z 22005KT 02/M07 A3031 RMK A01 T00151066  RH  055%=      5-min Rain = 0
KHO1 200650Z 22004KT 02/M07 A3031 RMK A01 T00151065  RH  055%=      5-min Rain = 0
KHO1 200651Z 23004KT 02/M07 A3031 RMK A01 T00161065  RH  055%=      5-min Rain = 0
KHO1 200652Z 22005KT 02/M07 A3031 RMK A01 T00161065  RH  055%=      5-min Rain = 0
KHO1 200653Z 22005KT 02/M07 A3031 RMK A01 T00161066  RH  055%=      5-min Rain = 0
KHO1 200654Z 22004KT 02/M07 A3031 RMK A01 T00161066  RH  055%=      5-min Rain = 0
KHO1 200655Z 22004KT 02/M07 A3031 RMK A01 T00161066  RH  055%=      5-min Rain = 0
KHO1 200656Z 22004KT 02/M07 A3031 RMK A01 T00151066  RH  055%=      5-min Rain = 0
KHO1 200657Z 22004KT 02/M07 A3031 RMK A01 T00151065  RH  055%=      5-min Rain = 0
KHO1 200658Z 22004KT 01/M07 A3031 RMK A01 T00141065  RH  055%=      5-min Rain = 0
KHO1 200659Z 22004KT 01/M07 A3031 RMK A01 T00141065  RH  056%=      5-min Rain = 0
KHO1 200700Z 22004KT 01/M07 A3031 RMK A01 T00141065  RH  056%=      5-min Rain = 0
KHO1 200701Z 22004KT 01/M07 A3031 RMK A01 T00141065  RH  056%=      5-min Rain = 0
KHO1 200702Z 22004KT 01/M07 A3031 RMK A01 T00141065  RH  056%=      5-min Rain = 0
KHO1 200703Z 22004KT 01/M07 A3031 RMK A01 T00141065  RH  056%=      5-min Rain = 0
KHO1 200704Z 22003KT 01/M07 A3031 RMK A01 T00141065  RH  056%=      5-min Rain = 0
KHO1 200705Z 21003KT 01/M07 A3031 RMK A01 T00141065  RH  056%=      5-min Rain = 0
KHO1 200706Z 21003KT 01/M07 A3031 RMK A01 T00141065  RH  056%=      5-min Rain = 0
KHO1 200707Z 21003KT 01/M07 A3031 RMK A01 T00131065  RH  056%=      5-min Rain = 0
KHO1 200708Z 21003KT 01/M07 A3031 RMK A01 T00131065  RH  056%=      5-min Rain = 0
KHO1 200709Z 20003KT 01/M07 A3031 RMK A01 T00131065  RH  056%=      5-min Rain = 0
KHO1 200710Z 20002KT 01/M07 A3031 RMK A01 T00121065  RH  056%=      5-min Rain = 0
KHO1 200711Z 20002KT 01/M07 A303 RMK A01 T00121066  RH  056%=      5-min Rain = 0
KHO1 200712Z 20002KT 01/M07 A303 RMK A01 T00121066  RH  056%=      5-min Rain = 0
KHO1 200713Z 20002KT 01/M07 A303 RMK A01 T00121066  RH  056%=      5-min Rain = 0
KHO1 200714Z 20002KT 01/M07 A303 RMK A01 T00131065  RH  056%=      5-min Rain = 0
KHO1 200715Z 19002KT 01/M07 A303 RMK A01 T00141065  RH  056%=      5-min Rain = 0
KHO1 200716Z 20003KT 02/M07 A303 RMK A01 T00151065  RH  055%=      5-min Rain = 0
KHO1 200717Z 20003KT 02/M07 A303 RMK A01 T00151065  RH  055%=      5-min Rain = 0
KHO1 200718Z 20003KT 02/M07 A303 RMK A01 T00151066  RH  055%=      5-min Rain = 0
KHO1 200719Z 20003KT 02/M07 A303 RMK A01 T00151066  RH  055%=      5-min Rain = 0
KHO1 200720Z 20003KT 01/M07 A303 RMK A01 T00141066  RH  055%=      5-min Rain = 0
KHO1 200721Z 20004KT 01/M07 A303 RMK A01 T00141066  RH  055%=      5-min Rain = 0
KHO1 200722Z 21004KT 01/M07 A303 RMK A01 T00141066  RH  055%=      5-min Rain = 0
KHO1 200723Z 21004KT 01/M07 A303 RMK A01 T00141067  RH  055%=      5-min Rain = 0
KHO1 200724Z 21004KT 01/M07 A303 RMK A01 T00131067  RH  055%=      5-min Rain = 0
KHO1 200725Z 21004KT 01/M07 A303 RMK A01 T00121066  RH  056%=      5-min Rain = 0
KHO1 200726Z 21003KT 01/M07 A303 RMK A01 T00121066  RH  056%=      5-min Rain = 0
KHO1 200727Z 21003KT 01/M07 A303 RMK A01 T00121065  RH  057%=      5-min Rain = 0
KHO1 200728Z 21003KT 01/M07 A303 RMK A01 T00121065  RH  057%=      5-min Rain = 0
KHO1 200729Z 20003KT 01/M07 A303 RMK A01 T00121065  RH  056%=      5-min Rain = 0
KHO1 200730Z 20002KT 01/M07 A303 RMK A01 T00121065  RH  057%=      5-min Rain = 0
KHO1 200731Z 20002KT 01/M07 A303 RMK A01 T00111066  RH  056%=      5-min Rain = 0
KHO1 200732Z 21002KT 01/M07 A303 RMK A01 T00111066  RH  057%=      5-min Rain = 0
KHO1 200733Z 21001KT 01/M07 A303 RMK A01 T00111066  RH  057%=      5-min Rain = 0
KHO1 200734Z 21001KT 01/M07 A303 RMK A01 T00101066  RH  057%=      5-min Rain = 0
KHO1 200735Z 22002KT 01/M07 A303 RMK A01 T00101065  RH  057%=      5-min Rain = 0
KHO1 200736Z 22003KT 01/M07 A303 RMK A01 T00111065  RH  057%=      5-min Rain = 0
KHO1 200737Z 21003KT 01/M07 A303 RMK A01 T00101065  RH  057%=      5-min Rain = 0
KHO1 200738Z 21003KT 01/M07 A303 RMK A01 T00101065  RH  057%=      5-min Rain = 0
KHO1 200739Z 21004KT 01/M06 A303 RMK A01 T00111064  RH  058%=      5-min Rain = 0
KHO1 200740Z 21004KT 01/M06 A303 RMK A01 T00111063  RH  058%=      5-min Rain = 0
KHO1 200741Z 21004KT 01/M06 A303 RMK A01 T00121063  RH  057%=      5-min Rain = 0
KHO1 200742Z 20004KT 01/M06 A303 RMK A01 T00131063  RH  057%=      5-min Rain = 0
KHO1 200743Z 20004KT 01/M06 A303 RMK A01 T00131064  RH  057%=      5-min Rain = 0
KHO1 200744Z 20004KT 01/M06 A303 RMK A01 T00131064  RH  057%=      5-min Rain = 0
KHO1 200745Z 20004KT 01/M07 A303 RMK A01 T00121065  RH  056%=      5-min Rain = 0
KHO1 200746Z 20004KT 01/M07 A303 RMK A01 T00121065  RH  056%=      5-min Rain = 0
KHO1 200747Z 20004KT 01/M07 A303 RMK A01 T00121066  RH  056%=      5-min Rain = 0
KHO1 200748Z 20004KT 01/M07 A303 RMK A01 T00121066  RH  056%=      5-min Rain = 0
KHO1 200749Z 21004KT 01/M07 A303 RMK A01 T00121065  RH  056%=      5-min Rain = 0
KHO1 200750Z 21004KT 01/M07 A3029 RMK A01 T00131065  RH  056%=      5-min Rain = 0
KHO1 200751Z 21005KT 01/M07 A3029 RMK A01 T00131066  RH  056%=      5-min Rain = 0
KHO1 200752Z 21005KT 01/M07 A3029 RMK A01 T00121066  RH  056%=      5-min Rain = 0
KHO1 200753Z 21005KT 01/M07 A3029 RMK A01 T00121065  RH  056%=      5-min Rain = 0
KHO1 200754Z 21005KT 01/M07 A3029 RMK A01 T00121065  RH  056%=      5-min Rain = 0
KHO1 200755Z 21005KT 01/M07 A3029 RMK A01 T00121065  RH  057%=      5-min Rain = 0
KHO1 200756Z 21005KT 01/M07 A3029 RMK A01 T00121065  RH  057%=      5-min Rain = 0
KHO1 200757Z 21006KT 01/M06 A3029 RMK A01 T00121064  RH  057%=      5-min Rain = 0
KHO1 200758Z 21006KT 01/M06 A3029 RMK A01 T00121064  RH  057%=      5-min Rain = 0
KHO1 200759Z 21006KT 01/M06 A3029 RMK A01 T00121064  RH  057%=      5-min Rain = 0
KHO1 200800Z 21006KT 01/M06 A3029 RMK A01 T00121063  RH  057%=      5-min Rain = 0
KHO1 200801Z 21006KT 01/M06 A3029 RMK A01 T00121063  RH  057%=      5-min Rain = 0
KHO1 200802Z 21006KT 01/M06 A3029 RMK A01 T00121063  RH  057%=      5-min Rain = 0
KHO1 200803Z 21007KT 01/M06 A3029 RMK A01 T00121062  RH  058%=      5-min Rain = 0
KHO1 200804Z 21006KT 01/M06 A3029 RMK A01 T00111062  RH  058%=      5-min Rain = 0
KHO1 200805Z 21007KT 01/M06 A3029 RMK A01 T00111061  RH  058%=      5-min Rain = 0
KHO1 200806Z 21007KT 01/M06 A3029 RMK A01 T00121061  RH  059%=      5-min Rain = 0
KHO1 200807Z 21007KT 01/M06 A3029 RMK A01 T00121060  RH  059%=      5-min Rain = 0
KHO1 200808Z 21007KT 01/M06 A3028 RMK A01 T00121059  RH  059%=      5-min Rain = 0
KHO1 200809Z 21007KT 01/M06 A3028 RMK A01 T00121059  RH  059%=      5-min Rain = 0
KHO1 200810Z 21007KT 01/M06 A3028 RMK A01 T00131058  RH  059%=      5-min Rain = 0
KHO1 200811Z 21006KT 01/M06 A3028 RMK A01 T00131058  RH  059%=      5-min Rain = 0
KHO1 200812Z 22006KT 01/M06 A3028 RMK A01 T00141057  RH  059%=      5-min Rain = 0
KHO1 200813Z 22006KT 02/M06 A3028 RMK A01 T00151057  RH  059%=      5-min Rain = 0
KHO1 200814Z 21006KT 02/M06 A3028 RMK A01 T00161057  RH  058%=      5-min Rain = 0
KHO1 200815Z 21006KT 02/M06 A3028 RMK A01 T00171057  RH  058%=      5-min Rain = 0
KHO1 200816Z 21007KT 02/M06 A3028 RMK A01 T00181057  RH  057%=      5-min Rain = 0
KHO1 200817Z 21007KT 02/M06 A3028 RMK A01 T00191057  RH  057%=      5-min Rain = 0
KHO1 200818Z 21007KT 02/M06 A3028 RMK A01 T00201057  RH  057%=      5-min Rain = 0
KHO1 200819Z 21007KT 02/M06 A3028 RMK A01 T00211057  RH  056%=      5-min Rain = 0
KHO1 200820Z 21007KT 02/M06 A3028 RMK A01 T00211057  RH  056%=      5-min Rain = 0
KHO1 200821Z 21007KT 02/M06 A3028 RMK A01 T00201058  RH  056%=      5-min Rain = 0
KHO1 200822Z 20007KT 02/M06 A3028 RMK A01 T00201057  RH  056%=      5-min Rain = 0
KHO1 200823Z 20007KT 02/M06 A3028 RMK A01 T00211057  RH  056%=      5-min Rain = 0
KHO1 200824Z 20006KT 02/M06 A3028 RMK A01 T00211057  RH  056%=      5-min Rain = 0
KHO1 200825Z 20007KT 02/M06 A3028 RMK A01 T00211058  RH  056%=      5-min Rain = 0
KHO1 200826Z 20006KT 02/M06 A3028 RMK A01 T00201058  RH  056%=      5-min Rain = 0
KHO1 200827Z 20007KT 02/M06 A3027 RMK A01 T00191059  RH  056%=      5-min Rain = 0
KHO1 200828Z 20007KT 02/M06 A3027 RMK A01 T00181060  RH  056%=      5-min Rain = 0
KHO1 200829Z 20006KT 02/M06 A3028 RMK A01 T00151060  RH  057%=      5-min Rain = 0
KHO1 200830Z 20006KT 01/M06 A3028 RMK A01 T00141060  RH  058%=      5-min Rain = 0
KHO1 200831Z 20006KT 01/M06 A3027 RMK A01 T00131060  RH  058%=      5-min Rain = 0
KHO1 200832Z 20006KT 01/M06 A3027 RMK A01 T00121059  RH  059%=      5-min Rain = 0
KHO1 200833Z 20006KT 01/M06 A3027 RMK A01 T00111059  RH  059%=      5-min Rain = 0
KHO1 200834Z 20006KT 01/M06 A3027 RMK A01 T00101059  RH  060%=      5-min Rain = 0
KHO1 200835Z 20006KT 01/M06 A3027 RMK A01 T00101059  RH  060%=      5-min Rain = 0
KHO1 200836Z 20006KT 01/M06 A3027 RMK A01 T00101059  RH  060%=      5-min Rain = 0
KHO1 200837Z 20006KT 01/M06 A3027 RMK A01 T00101058  RH  060%=      5-min Rain = 0
KHO1 200838Z 20006KT 01/M06 A3027 RMK A01 T00091058  RH  061%=      5-min Rain = 0
KHO1 200839Z 20006KT 01/M06 A3027 RMK A01 T00091059  RH  061%=      5-min Rain = 0
KHO1 200840Z 20006KT 01/M06 A3027 RMK A01 T00081058  RH  061%=      5-min Rain = 0
KHO1 200841Z 20006KT 01/M06 A3027 RMK A01 T00091058  RH  061%=      5-min Rain = 0
KHO1 200842Z 20006KT 01/M06 A3027 RMK A01 T00081058  RH  061%=      5-min Rain = 0
KHO1 200843Z 20006KT 01/M06 A3027 RMK A01 T00081058  RH  061%=      5-min Rain = 0
KHO1 200844Z 20005KT 01/M06 A3027 RMK A01 T00071058  RH  062%=      5-min Rain = 0
KHO1 200845Z 20005KT 01/M06 A3027 RMK A01 T00071058  RH  062%=      5-min Rain = 0
KHO1 200846Z 20005KT 01/M06 A3027 RMK A01 T00071058  RH  062%=      5-min Rain = 0
KHO1 200847Z 20005KT 01/M06 A3027 RMK A01 T00071058  RH  062%=      5-min Rain = 0
KHO1 200848Z 19005KT 01/M06 A3027 RMK A01 T00071058  RH  062%=      5-min Rain = 0
KHO1 200849Z 19005KT 01/M06 A3027 RMK A01 T00071057  RH  062%=      5-min Rain = 0
KHO1 200850Z 19005KT 01/M06 A3027 RMK A01 T00071057  RH  062%=      5-min Rain = 0
KHO1 200851Z 19006KT 01/M06 A3027 RMK A01 T00081057  RH  062%=      5-min Rain = 0
KHO1 200852Z 19006KT 01/M06 A3027 RMK A01 T00081057  RH  062%=      5-min Rain = 0
KHO1 200853Z 19006KT 01/M06 A3027 RMK A01 T00081057  RH  062%=      5-min Rain = 0
KHO1 200854Z 19006KT 01/M06 A3027 RMK A01 T00081057  RH  062%=      5-min Rain = 0
KHO1 200855Z 18005KT 01/M06 A3027 RMK A01 T00091057  RH  061%=      5-min Rain = 0
KHO1 200856Z 18005KT 01/M06 A3027 RMK A01 T00091057  RH  061%=      5-min Rain = 0
KHO1 200857Z 17005KT 01/M06 A3027 RMK A01 T00091057  RH  061%=      5-min Rain = 0
KHO1 200858Z 16005KT 01/M06 A3027 RMK A01 T00091058  RH  061%=      5-min Rain = 0
KHO1 200859Z 15005KT 01/M06 A3027 RMK A01 T00081058  RH  062%=      5-min Rain = 0
KHO1 200900Z 15006KT 01/M06 A3027 RMK A01 T00071057  RH  062%=      5-min Rain = 0
KHO1 200901Z 15005KT 01/M06 A3027 RMK A01 T00071057  RH  062%=      5-min Rain = 0
KHO1 200902Z 16004KT 01/M06 A3027 RMK A01 T00061057  RH  063%=      5-min Rain = 0
KHO1 200903Z 16004KT 01/M06 A3027 RMK A01 T00081056  RH  063%=      5-min Rain = 0
KHO1 200904Z 16004KT 01/M06 A3027 RMK A01 T00091055  RH  062%=      5-min Rain = 0
KHO1 200905Z 17004KT 01/M06 A3027 RMK A01 T00101056  RH  062%=      5-min Rain = 0
KHO1 200906Z 17004KT 01/M06 A3027 RMK A01 T00111056  RH  061%=      5-min Rain = 0
KHO1 200907Z 18005KT 01/M06 A3027 RMK A01 T00101056  RH  061%=      5-min Rain = 0
KHO1 200908Z 18005KT 01/M06 A3027 RMK A01 T00121055  RH  061%=      5-min Rain = 0
KHO1 200909Z 17004KT 01/M06 A3027 RMK A01 T00131055  RH  061%=      5-min Rain = 0
KHO1 200910Z 18004KT 01/M06 A3027 RMK A01 T00141056  RH  060%=      5-min Rain = 0
KHO1 200911Z 18004KT 01/M06 A3027 RMK A01 T00141056  RH  060%=      5-min Rain = 0
KHO1 200912Z 18004KT 01/M06 A3027 RMK A01 T00141057  RH  059%=      5-min Rain = 0
KHO1 200913Z 17004KT 01/M06 A3027 RMK A01 T00141057  RH  059%=      5-min Rain = 0
KHO1 200914Z 17005KT 02/M06 A3027 RMK A01 T00151057  RH  059%=      5-min Rain = 0
KHO1 200915Z 18005KT 02/M06 A3027 RMK A01 T00151057  RH  058%=      5-min Rain = 0
KHO1 200916Z 18004KT 02/M06 A3027 RMK A01 T00151058  RH  058%=      5-min Rain = 0
KHO1 200917Z 18004KT 01/M06 A3027 RMK A01 T00141058  RH  059%=      5-min Rain = 0
KHO1 200918Z 18004KT 01/M06 A3027 RMK A01 T00131058  RH  059%=      5-min Rain = 0
KHO1 200919Z 18003KT 01/M06 A3027 RMK A01 T00121058  RH  060%=      5-min Rain = 0
KHO1 200920Z 19004KT 01/M06 A3027 RMK A01 T00111058  RH  060%=      5-min Rain = 0
KHO1 200921Z 19004KT 01/M06 A3027 RMK A01 T00101059  RH  060%=      5-min Rain = 0
KHO1 200922Z 19003KT 01/M06 A3027 RMK A01 T00091059  RH  061%=      5-min Rain = 0
KHO1 200923Z 18003KT 01/M06 A3027 RMK A01 T00081058  RH  061%=      5-min Rain = 0
KHO1 200924Z 18002KT 01/M06 A3027 RMK A01 T00081058  RH  061%=      5-min Rain = 0
KHO1 200925Z 17002KT 01/M06 A3027 RMK A01 T00081058  RH  061%=      5-min Rain = 0
KHO1 200926Z 17002KT 01/M06 A3027 RMK A01 T00081058  RH  061%=      5-min Rain = 0
KHO1 200927Z 17001KT 01/M06 A3027 RMK A01 T00081058  RH  061%=      5-min Rain = 0
KHO1 200928Z 00000KT 01/M06 A3027 RMK A01 T00071058  RH  062%=      5-min Rain = 0
KHO1 200929Z 00000KT 01/M06 A3027 RMK A01 T00061058  RH  062%=      5-min Rain = 0
KHO1 200930Z 00000KT 01/M06 A3027 RMK A01 T00061058  RH  062%=      5-min Rain = 0
KHO1 200931Z 17001KT 01/M06 A3027 RMK A01 T00061058  RH  062%=      5-min Rain = 0
KHO1 200932Z 17002KT 01/M06 A3027 RMK A01 T00061058  RH  062%=      5-min Rain = 0
KHO1 200933Z 17002KT 01/M06 A3027 RMK A01 T00071058  RH  062%=      5-min Rain = 0
KHO1 200934Z 17003KT 01/M06 A3027 RMK A01 T00091058  RH  061%=      5-min Rain = 0
KHO1 200935Z 17003KT 01/M06 A3027 RMK A01 T00101058  RH  061%=      5-min Rain = 0
KHO1 200936Z 17003KT 01/M06 A3027 RMK A01 T00101058  RH  060%=      5-min Rain = 0
KHO1 200937Z 17003KT 01/M06 A3027 RMK A01 T00101059  RH  060%=      5-min Rain = 0
KHO1 200938Z 18003KT 01/M06 A3027 RMK A01 T00101059  RH  060%=      5-min Rain = 0
KHO1 200939Z 18003KT 01/M06 A3027 RMK A01 T00111059  RH  060%=      5-min Rain = 0
KHO1 200940Z 18003KT 01/M06 A3027 RMK A01 T00111059  RH  060%=      5-min Rain = 0
KHO1 200941Z 18003KT 01/M06 A3027 RMK A01 T00111059  RH  060%=      5-min Rain = 0
KHO1 200942Z 17003KT 01/M06 A3027 RMK A01 T00111059  RH  060%=      5-min Rain = 0
KHO1 200943Z 17003KT 01/M06 A3027 RMK A01 T00101059  RH  060%=      5-min Rain = 0
KHO1 200944Z 16004KT 01/M06 A3027 RMK A01 T00101059  RH  060%=      5-min Rain = 0
KHO1 200945Z 15004KT 01/M06 A3027 RMK A01 T00101058  RH  060%=      5-min Rain = 0
KHO1 200946Z 15004KT 01/M06 A3027 RMK A01 T00101059  RH  060%=      5-min Rain = 0
KHO1 200947Z 15003KT 01/M06 A3027 RMK A01 T00091059  RH  060%=      5-min Rain = 0
KHO1 200948Z 15003KT 01/M06 A3027 RMK A01 T00081059  RH  061%=      5-min Rain = 0
KHO1 200949Z 15002KT 01/M06 A3027 RMK A01 T00081059  RH  061%=      5-min Rain = 0
KHO1 200950Z 15002KT 01/M06 A3027 RMK A01 T00081059  RH  061%=      5-min Rain = 0
KHO1 200951Z 15002KT 01/M06 A3027 RMK A01 T00081059  RH  061%=      5-min Rain = 0
KHO1 200952Z 15002KT 01/M06 A3027 RMK A01 T00081060  RH  061%=      5-min Rain = 0
KHO1 200953Z 15002KT 01/M06 A3027 RMK A01 T00081060  RH  060%=      5-min Rain = 0
KHO1 200954Z 15001KT 01/M06 A3027 RMK A01 T00071060  RH  060%=      5-min Rain = 0
KHO1 200955Z 15001KT 01/M06 A3027 RMK A01 T00071061  RH  060%=      5-min Rain = 0
KHO1 200956Z 15001KT 01/M06 A3027 RMK A01 T00071060  RH  061%=      5-min Rain = 0
KHO1 200957Z 16002KT 01/M06 A3027 RMK A01 T00071060  RH  061%=      5-min Rain = 0
KHO1 200958Z 16002KT 01/M06 A3027 RMK A01 T00061061  RH  061%=      5-min Rain = 0
KHO1 200959Z 16002KT 01/M06 A3027 RMK A01 T00061060  RH  061%=      5-min Rain = 0
KHO1 201000Z 16002KT 01/M06 A3027 RMK A01 T00071060  RH  061%=      5-min Rain = 0
KHO1 201001Z 16002KT 01/M06 A3027 RMK A01 T00071060  RH  061%=      5-min Rain = 0
KHO1 201002Z 16002KT 01/M06 A3027 RMK A01 T00071061  RH  061%=      5-min Rain = 0
KHO1 201003Z 15001KT 01/M06 A3027 RMK A01 T00071061  RH  061%=      5-min Rain = 0
KHO1 201004Z 00000KT 01/M06 A3027 RMK A01 T00061061  RH  061%=      5-min Rain = 0
KHO1 201005Z 00000KT 01/M06 A3027 RMK A01 T00061062  RH  061%=      5-min Rain = 0
KHO1 201006Z 00000KT 01/M06 A3027 RMK A01 T00061062  RH  060%=      5-min Rain = 0
KHO1 201007Z 00000KT 01/M06 A3026 RMK A01 T00051062  RH  061%=      5-min Rain = 0
KHO1 201008Z 00000KT 01/M06 A3026 RMK A01 T00051062  RH  061%=      5-min Rain = 0
KHO1 201009Z 00000KT 01/M06 A3026 RMK A01 T00051062  RH  061%=      5-min Rain = 0
KHO1 201010Z 00000KT 01/M06 A3026 RMK A01 T00051061  RH  061%=      5-min Rain = 0
KHO1 201011Z 19000KT 01/M06 A3026 RMK A01 T00051061  RH  061%=      5-min Rain = 0
KHO1 201012Z 19001KT 01/M06 A3026 RMK A01 T00061061  RH  061%=      5-min Rain = 0
KHO1 201013Z 19001KT 01/M06 A3026 RMK A01 T00061061  RH  061%=      5-min Rain = 0
KHO1 201014Z 19001KT 01/M06 A3026 RMK A01 T00071060  RH  061%=      5-min Rain = 0
KHO1 201015Z 19000KT 01/M06 A3026 RMK A01 T00071060  RH  061%=      5-min Rain = 0
KHO1 201016Z 00000KT 01/M06 A3026 RMK A01 T00071061  RH  060%=      5-min Rain = 0
KHO1 201017Z 17000KT 01/M06 A3026 RMK A01 T00071061  RH  060%=      5-min Rain = 0
KHO1 201018Z 17002KT 01/M06 A3026 RMK A01 T00071061  RH  060%=      5-min Rain = 0
KHO1 201019Z 16002KT 01/M06 A3026 RMK A01 T00071061  RH  060%=      5-min Rain = 0
KHO1 201020Z 16002KT 01/M06 A3026 RMK A01 T00071061  RH  060%=      5-min Rain = 0
KHO1 201021Z 16002KT 01/M06 A3026 RMK A01 T00071061  RH  060%=      5-min Rain = 0
KHO1 201022Z 16003KT 01/M06 A3026 RMK A01 T00071061  RH  060%=      5-min Rain = 0
KHO1 201023Z 16003KT 01/M06 A3026 RMK A01 T00071061  RH  060%=      5-min Rain = 0
KHO1 201024Z 17003KT 01/M06 A3026 RMK A01 T00071061  RH  060%=      5-min Rain = 0
KHO1 201025Z 17003KT 01/M06 A3026 RMK A01 T00071061  RH  060%=      5-min Rain = 0
KHO1 201026Z 17002KT 01/M06 A3026 RMK A01 T00071061  RH  060%=      5-min Rain = 0
KHO1 201027Z 17002KT 01/M06 A3026 RMK A01 T00071060  RH  061%=      5-min Rain = 0
KHO1 201028Z 17002KT 01/M06 A3026 RMK A01 T00071060  RH  061%=      5-min Rain = 0
KHO1 201029Z 17002KT 01/M06 A3026 RMK A01 T00071060  RH  061%=      5-min Rain = 0
KHO1 201030Z 17002KT 01/M06 A3026 RMK A01 T00071060  RH  061%=      5-min Rain = 0
KHO1 201031Z 17002KT 01/M06 A3026 RMK A01 T00061060  RH  061%=      5-min Rain = 0
KHO1 201032Z 17002KT 01/M06 A3026 RMK A01 T00061059  RH  062%=      5-min Rain = 0
KHO1 201033Z 17002KT 01/M06 A3026 RMK A01 T00051059  RH  062%=      5-min Rain = 0
KHO1 201034Z 17002KT 00/M06 A3026 RMK A01 T00041060  RH  062%=      5-min Rain = 0
KHO1 201035Z 16002KT 00/M06 A3026 RMK A01 T00041060  RH  062%=      5-min Rain = 0
KHO1 201036Z 16002KT 00/M06 A3026 RMK A01 T00031060  RH  063%=      5-min Rain = 0
KHO1 201037Z 16002KT 00/M06 A3026 RMK A01 T00031060  RH  063%=      5-min Rain = 0
KHO1 201038Z 16002KT 00/M06 A3026 RMK A01 T00031060  RH  063%=      5-min Rain = 0
KHO1 201039Z 16002KT 00/M06 A3026 RMK A01 T00021060  RH  063%=      5-min Rain = 0
KHO1 201040Z 16002KT 00/M06 A3026 RMK A01 T00021061  RH  063%=      5-min Rain = 0
KHO1 201041Z 16002KT 00/M06 A3026 RMK A01 T00011061  RH  063%=      5-min Rain = 0
KHO1 201042Z 16002KT 00/M06 A3026 RMK A01 T00011060  RH  064%=      5-min Rain = 0
KHO1 201043Z 16002KT 00/M06 A3026 RMK A01 T00011060  RH  064%=      5-min Rain = 0
KHO1 201044Z 16002KT 00/M06 A3026 RMK A01 T00011060  RH  064%=      5-min Rain = 0
KHO1 201045Z 16001KT 00/M06 A3026 RMK A01 T00011060  RH  064%=      5-min Rain = 0
KHO1 201046Z 16001KT 00/M06 A3026 RMK A01 T00011060  RH  064%=      5-min Rain = 0
KHO1 201047Z 16000KT 00/M06 A3026 RMK A01 T00011060  RH  064%=      5-min Rain = 0
KHO1 201048Z 00000KT 00/06 A3026 RMK A01 T00000-60  RH  064%=      5-min Rain = 0
KHO1 201049Z 00000KT 00/M06 A3026 RMK A01 T00011060  RH  064%=      5-min Rain = 0
KHO1 201050Z 00000KT 00/M06 A3026 RMK A01 T00011061  RH  063%=      5-min Rain = 0
KHO1 201051Z 13001KT 00/M06 A3026 RMK A01 T00021060  RH  063%=      5-min Rain = 0
KHO1 201052Z 13003KT 00/M06 A3026 RMK A01 T00021061  RH  063%=      5-min Rain = 0
KHO1 201053Z 12003KT 00/M06 A3026 RMK A01 T00021061  RH  062%=      5-min Rain = 0
KHO1 201054Z 12002KT 00/M06 A3026 RMK A01 T00021061  RH  062%=      5-min Rain = 0
KHO1 201055Z 12000KT 00/M06 A3026 RMK A01 T00021061  RH  063%=      5-min Rain = 0
KHO1 201056Z 00000KT 00/M06 A3026 RMK A01 T00021060  RH  063%=      5-min Rain = 0
KHO1 201057Z 07000KT 00/M06 A3026 RMK A01 T00011059  RH  064%=      5-min Rain = 0
KHO1 201058Z 07002KT M00/M06 A3026 RMK A01 T10011059  RH  065%=      5-min Rain = 0
KHO1 201059Z 07003KT M00/M06 A3026 RMK A01 T10031059  RH  066%=      5-min Rain = 0
KHO1 201100Z 07003KT M00/M06 A3026 RMK A01 T10041060  RH  066%=      5-min Rain = 0
KHO1 201101Z 07003KT M00/M06 A3026 RMK A01 T10041061  RH  065%=      5-min Rain = 0
KHO1 201102Z 07003KT M00/M06 A3026 RMK A01 T10041062  RH  065%=      5-min Rain = 0
KHO1 201103Z 07003KT M00/M06 A3026 RMK A01 T10041062  RH  065%=      5-min Rain = 0
KHO1 201104Z 08003KT M01/M06 A3026 RMK A01 T10051062  RH  065%=      5-min Rain = 0
KHO1 201105Z 09003KT M01/M06 A3026 RMK A01 T10061062  RH  065%=      5-min Rain = 0
KHO1 201106Z 09003KT M01/M06 A3026 RMK A01 T10061062  RH  066%=      5-min Rain = 0
KHO1 201107Z 10003KT M01/M06 A3026 RMK A01 T10071063  RH  066%=      5-min Rain = 0
KHO1 201108Z 10004KT M01/M06 A3026 RMK A01 T10081063  RH  066%=      5-min Rain = 0
KHO1 201109Z 10004KT M01/M06 A3026 RMK A01 T10081063  RH  067%=      5-min Rain = 0
KHO1 201110Z 10004KT M01/M06 A3026 RMK A01 T10091062  RH  067%=      5-min Rain = 0
KHO1 201111Z 10003KT M01/M06 A3026 RMK A01 T10091062  RH  067%=      5-min Rain = 0
KHO1 201112Z 10002KT M01/M06 A3026 RMK A01 T10091062  RH  067%=      5-min Rain = 0
KHO1 201113Z 10003KT M01/M06 A3026 RMK A01 T10091062  RH  067%=      5-min Rain = 0
KHO1 201114Z 09003KT M01/M06 A3026 RMK A01 T10101062  RH  067%=      5-min Rain = 0
KHO1 201115Z 09003KT M01/M06 A3026 RMK A01 T10101062  RH  068%=      5-min Rain = 0
KHO1 201116Z 09003KT M01/M06 A3026 RMK A01 T10101062  RH  068%=      5-min Rain = 0
KHO1 201117Z 10004KT M01/M06 A3026 RMK A01 T10101062  RH  068%=      5-min Rain = 0
KHO1 201118Z 10004KT M01/M06 A3026 RMK A01 T10101062  RH  068%=      5-min Rain = 0
KHO1 201119Z 11004KT M01/M06 A3026 RMK A01 T10101061  RH  068%=      5-min Rain = 0
KHO1 201120Z 11003KT M01/M06 A3026 RMK A01 T10101061  RH  068%=      5-min Rain = 0
KHO1 201121Z 11003KT M01/M06 A3026 RMK A01 T10091061  RH  068%=      5-min Rain = 0
KHO1 201122Z 11002KT M01/M06 A3026 RMK A01 T10091061  RH  068%=      5-min Rain = 0
KHO1 201123Z 11002KT M01/M06 A3026 RMK A01 T10091061  RH  068%=      5-min Rain = 0
KHO1 201124Z 11001KT M01/M06 A3026 RMK A01 T10091062  RH  068%=      5-min Rain = 0
KHO1 201125Z 00000KT M01/M06 A3026 RMK A01 T10091062  RH  068%=      5-min Rain = 0
KHO1 201126Z 00000KT M01/M06 A3026 RMK A01 T10091062  RH  068%=      5-min Rain = 0
KHO1 201127Z 00000KT M01/M06 A3025 RMK A01 T10091062  RH  067%=      5-min Rain = 0
KHO1 201128Z 00000KT M01/M06 A3025 RMK A01 T10091062  RH  067%=      5-min Rain = 0
KHO1 201129Z 00000KT M01/M06 A3025 RMK A01 T10091062  RH  067%=      5-min Rain = 0
KHO1 201130Z 00000KT M01/M06 A3025 RMK A01 T10091062  RH  067%=      5-min Rain = 0
KHO1 201131Z 00000KT M01/M06 A3025 RMK A01 T10091062  RH  068%=      5-min Rain = 0
KHO1 201132Z 00000KT M01/M06 A3025 RMK A01 T10091062  RH  068%=      5-min Rain = 0
KHO1 201133Z 00000KT M01/M06 A3025 RMK A01 T10091061  RH  068%=      5-min Rain = 0
KHO1 201134Z 00000KT M01/M06 A3025 RMK A01 T10101061  RH  068%=      5-min Rain = 0
KHO1 201135Z 00000KT M01/M06 A3025 RMK A01 T10091061  RH  068%=      5-min Rain = 0
KHO1 201136Z 00000KT M01/M06 A3025 RMK A01 T10091061  RH  068%=      5-min Rain = 0
KHO1 201137Z 00000KT M01/M06 A3025 RMK A01 T10091061  RH  068%=      5-min Rain = 0
KHO1 201138Z 00000KT M01/M06 A3025 RMK A01 T10091061  RH  068%=      5-min Rain = 0
KHO1 201139Z 11002KT M01/M06 A3025 RMK A01 T10091061  RH  068%=      5-min Rain = 0
KHO1 201140Z 11002KT M01/M06 A3025 RMK A01 T10091062  RH  067%=      5-min Rain = 0
KHO1 201141Z 11002KT M01/M06 A3025 RMK A01 T10091062  RH  067%=      5-min Rain = 0
KHO1 201142Z 11002KT M01/M06 A3025 RMK A01 T10091062  RH  067%=      5-min Rain = 0
KHO1 201143Z 11003KT M01/M06 A3025 RMK A01 T10091062  RH  067%=      5-min Rain = 0
KHO1 201144Z 12002KT M01/M06 A3025 RMK A01 T10081061  RH  067%=      5-min Rain = 0
KHO1 201145Z 13002KT M01/M06 A3025 RMK A01 T10081061  RH  067%=      5-min Rain = 0
KHO1 201146Z 12001KT M01/M06 A3025 RMK A01 T10081061  RH  067%=      5-min Rain = 0
KHO1 201147Z 12001KT M01/M06 A3025 RMK A01 T10081062  RH  067%=      5-min Rain = 0
KHO1 201148Z 12001KT M01/M06 A3025 RMK A01 T10081062  RH  067%=      5-min Rain = 0
KHO1 201149Z 12000KT M01/M06 A3025 RMK A01 T10091062  RH  067%=      5-min Rain = 0
KHO1 201150Z 00000KT M01/M06 A3025 RMK A01 T10091062  RH  067%=      5-min Rain = 0
KHO1 201151Z 00000KT M01/M06 A3025 RMK A01 T10091062  RH  067%=      5-min Rain = 0
KHO1 201152Z 00000KT M01/M06 A3025 RMK A01 T10081062  RH  067%=      5-min Rain = 0
KHO1 201153Z 00000KT M01/M06 A3025 RMK A01 T10081062  RH  067%=      5-min Rain = 0
KHO1 201154Z 00000KT M01/M06 A3025 RMK A01 T10081062  RH  067%=      5-min Rain = 0
KHO1 201155Z 00000KT M01/M06 A3025 RMK A01 T10081062  RH  067%=      5-min Rain = 0
KHO1 201156Z 11001KT M01/M06 A3025 RMK A01 T10081062  RH  067%=      5-min Rain = 0
KHO1 201157Z 11002KT M01/M06 A3025 RMK A01 T10081061  RH  067%=      5-min Rain = 0
KHO1 201158Z 11002KT M01/M06 A3025 RMK A01 T10081062  RH  067%=      5-min Rain = 0
KHO1 201159Z 11001KT M01/M06 A3025 RMK A01 T10081062  RH  067%=      5-min Rain = 0
KHO1 201200Z 11000KT M01/M06 A3025 RMK A01 T10081062  RH  067%=      5-min Rain = 0
KHO1 201201Z 00000KT M01/M06 A3025 RMK A01 T10081061  RH  067%=      5-min Rain = 0
KHO1 201202Z 00000KT M01/M06 A3025 RMK A01 T10081061  RH  067%=      5-min Rain = 0
KHO1 201203Z 00000KT M01/M06 A3025 RMK A01 T10081061  RH  067%=      5-min Rain = 0
KHO1 201204Z 00000KT M01/M06 A3025 RMK A01 T10081061  RH  067%=      5-min Rain = 0
KHO1 201205Z 00000KT M01/M06 A3025 RMK A01 T10081061  RH  067%=      5-min Rain = 0
KHO1 201206Z 00000KT M01/M06 A3025 RMK A01 T10071062  RH  067%=      5-min Rain = 0
KHO1 201207Z 00000KT M01/M06 A3025 RMK A01 T10071062  RH  067%=      5-min Rain = 0
KHO1 201208Z 00000KT M01/M06 A3025 RMK A01 T10071062  RH  067%=      5-min Rain = 0
KHO1 201209Z 00000KT M01/M06 A3024 RMK A01 T10071062  RH  067%=      5-min Rain = 0
KHO1 201210Z 00000KT M01/M06 A3024 RMK A01 T10071061  RH  067%=      5-min Rain = 0
KHO1 201211Z 00000KT M01/M06 A3024 RMK A01 T10061061  RH  067%=      5-min Rain = 0
KHO1 201212Z 00000KT M01/M06 A3024 RMK A01 T10061061  RH  066%=      5-min Rain = 0
KHO1 201213Z 00000KT M01/M06 A3024 RMK A01 T10061061  RH  066%=      5-min Rain = 0
KHO1 201214Z 00000KT M01/M06 A3024 RMK A01 T10061061  RH  066%=      5-min Rain = 0
KHO1 201215Z 00000KT M01/M06 A3024 RMK A01 T10061061  RH  066%=      5-min Rain = 0
KHO1 201216Z 00000KT M01/M06 A3024 RMK A01 T10061061  RH  066%=      5-min Rain = 0
KHO1 201217Z 00000KT M01/M06 A3024 RMK A01 T10061061  RH  067%=      5-min Rain = 0
KHO1 201218Z 00000KT M01/M06 A3024 RMK A01 T10061061  RH  066%=      5-min Rain = 0
KHO1 201219Z 00000KT M01/M06 A3024 RMK A01 T10061062  RH  066%=      5-min Rain = 0
KHO1 201220Z 00000KT M01/M06 A3024 RMK A01 T10061061  RH  066%=      5-min Rain = 0
KHO1 201221Z 00000KT M01/M06 A3024 RMK A01 T10061060  RH  067%=      5-min Rain = 0
KHO1 201222Z 00000KT M01/M06 A3024 RMK A01 T10071059  RH  068%=      5-min Rain = 0
KHO1 201223Z 00000KT M01/M06 A3024 RMK A01 T10071059  RH  068%=      5-min Rain = 0
KHO1 201224Z 00000KT M01/M06 A3024 RMK A01 T10071059  RH  068%=      5-min Rain = 0
KHO1 201225Z 00000KT M01/M06 A3024 RMK A01 T10081059  RH  068%=      5-min Rain = 0
KHO1 201226Z 00000KT M01/M06 A3024 RMK A01 T10081059  RH  068%=      5-min Rain = 0
KHO1 201227Z 00000KT M01/M06 A3024 RMK A01 T10081059  RH  068%=      5-min Rain = 0
KHO1 201228Z 11001KT M01/M06 A3024 RMK A01 T10081060  RH  068%=      5-min Rain = 0
KHO1 201229Z 11002KT M01/M06 A3024 RMK A01 T10081061  RH  068%=      5-min Rain = 0
KHO1 201230Z 11002KT M01/M06 A3024 RMK A01 T10091061  RH  068%=      5-min Rain = 0
KHO1 201231Z 11002KT M01/M06 A3024 RMK A01 T10091061  RH  068%=      5-min Rain = 0
KHO1 201232Z 11002KT M01/M06 A3024 RMK A01 T10091062  RH  068%=      5-min Rain = 0
KHO1 201233Z 11002KT M01/M06 A3024 RMK A01 T10101062  RH  068%=      5-min Rain = 0
KHO1 201234Z 11001KT M01/M06 A3024 RMK A01 T10101062  RH  068%=      5-min Rain = 0
KHO1 201235Z 11002KT M01/M06 A3024 RMK A01 T10101063  RH  067%=      5-min Rain = 0
KHO1 201236Z 11002KT M01/M06 A3024 RMK A01 T10101063  RH  068%=      5-min Rain = 0
KHO1 201237Z 11002KT M01/M06 A3024 RMK A01 T10111063  RH  068%=      5-min Rain = 0
KHO1 201238Z 11002KT M01/M06 A3024 RMK A01 T10111063  RH  068%=      5-min Rain = 0
KHO1 201239Z 11002KT M01/M06 A3024 RMK A01 T10111063  RH  068%=      5-min Rain = 0
KHO1 201240Z 11002KT M01/M06 A3024 RMK A01 T10111063  RH  068%=      5-min Rain = 0
KHO1 201241Z 11002KT M01/M06 A3024 RMK A01 T10121063  RH  068%=      5-min Rain = 0
KHO1 201242Z 11002KT M01/M06 A3024 RMK A01 T10121063  RH  068%=      5-min Rain = 0
KHO1 201243Z 11002KT M01/M06 A3024 RMK A01 T10131063  RH  069%=      5-min Rain = 0
KHO1 201244Z 11002KT M01/M06 A3024 RMK A01 T10131063  RH  069%=      5-min Rain = 0
KHO1 201245Z 11002KT M01/M06 A3024 RMK A01 T10131063  RH  069%=      5-min Rain = 0
KHO1 201246Z 11002KT M01/M06 A3024 RMK A01 T10141063  RH  069%=      5-min Rain = 0
KHO1 201247Z 11001KT M01/M06 A3024 RMK A01 T10141063  RH  069%=      5-min Rain = 0
KHO1 201248Z 11001KT M01/M06 A3024 RMK A01 T10141063  RH  070%=      5-min Rain = 0
KHO1 201249Z 11001KT M02/M06 A3024 RMK A01 T10151063  RH  070%=      5-min Rain = 0
KHO1 201250Z 11002KT M02/M06 A3024 RMK A01 T10151063  RH  070%=      5-min Rain = 0
KHO1 201251Z 11002KT M02/M06 A3024 RMK A01 T10151063  RH  070%=      5-min Rain = 0
KHO1 201252Z 11002KT M02/M06 A3024 RMK A01 T10151062  RH  070%=      5-min Rain = 0
KHO1 201253Z 11002KT M02/M06 A3024 RMK A01 T10151062  RH  070%=      5-min Rain = 0
KHO1 201254Z 11003KT M01/M06 A3024 RMK A01 T10141062  RH  070%=      5-min Rain = 0
KHO1 201255Z 11004KT M02/M06 A3024 RMK A01 T10151063  RH  070%=      5-min Rain = 0
KHO1 201256Z 11004KT M02/M06 A3024 RMK A01 T10151063  RH  070%=      5-min Rain = 0
KHO1 201257Z 11005KT M02/M06 A3025 RMK A01 T10151062  RH  070%=      5-min Rain = 0
KHO1 201258Z 11005KT M02/M06 A3025 RMK A01 T10151062  RH  070%=      5-min Rain = 0
KHO1 201259Z 11005KT M02/M06 A3025 RMK A01 T10161062  RH  070%=      5-min Rain = 0
KHO1 201300Z 11004KT M02/M06 A3025 RMK A01 T10161062  RH  071%=      5-min Rain = 0
KHO1 201301Z 12004KT M02/M06 A3025 RMK A01 T10161062  RH  071%=      5-min Rain = 0
KHO1 201302Z 12003KT M02/M06 A3025 RMK A01 T10161062  RH  071%=      5-min Rain = 0
KHO1 201303Z 12002KT M02/M06 A3025 RMK A01 T10161062  RH  071%=      5-min Rain = 0
KHO1 201304Z 12002KT M02/M06 A3025 RMK A01 T10161062  RH  071%=      5-min Rain = 0
KHO1 201305Z 12002KT M02/M06 A3025 RMK A01 T10161062  RH  071%=      5-min Rain = 0
KHO1 201306Z 12002KT M02/M06 A3025 RMK A01 T10161062  RH  071%=      5-min Rain = 0
KHO1 201307Z 12002KT M02/M06 A3025 RMK A01 T10161062  RH  071%=      5-min Rain = 0
KHO1 201308Z 12002KT M02/M06 A3025 RMK A01 T10161063  RH  071%=      5-min Rain = 0
KHO1 201309Z 12002KT M02/M06 A3025 RMK A01 T10171063  RH  070%=      5-min Rain = 0
KHO1 201310Z 12003KT M02/M06 A3025 RMK A01 T10171063  RH  071%=      5-min Rain = 0
KHO1 201311Z 13003KT M02/M06 A3025 RMK A01 T10171062  RH  071%=      5-min Rain = 0
KHO1 201312Z 13003KT M02/M06 A3025 RMK A01 T10171061  RH  072%=      5-min Rain = 0
KHO1 201313Z 13003KT M02/M06 A3025 RMK A01 T10161060  RH  072%=      5-min Rain = 0
KHO1 201314Z 13003KT M02/M06 A3025 RMK A01 T10151059  RH  072%=      5-min Rain = 0
KHO1 201315Z 13003KT M01/M06 A3025 RMK A01 T10141058  RH  072%=      5-min Rain = 0
KHO1 201316Z 13003KT M01/M06 A3025 RMK A01 T10121058  RH  071%=      5-min Rain = 0
KHO1 201317Z 13003KT M01/M06 A3025 RMK A01 T10121059  RH  070%=      5-min Rain = 0
KHO1 201318Z 13003KT M01/M06 A3025 RMK A01 T10111059  RH  070%=      5-min Rain = 0
KHO1 201319Z 13003KT M01/M06 A3025 RMK A01 T10111059  RH  070%=      5-min Rain = 0
KHO1 201320Z 13003KT M01/M06 A3025 RMK A01 T10101058  RH  070%=      5-min Rain = 0
KHO1 201321Z 14003KT M01/M06 A3025 RMK A01 T10091058  RH  069%=      5-min Rain = 0
KHO1 201322Z 14003KT M01/M06 A3025 RMK A01 T10081058  RH  069%=      5-min Rain = 0
KHO1 201323Z 13003KT M01/M06 A3025 RMK A01 T10071058  RH  068%=      5-min Rain = 0
KHO1 201324Z 13003KT M01/M06 A3025 RMK A01 T10061058  RH  068%=      5-min Rain = 0
KHO1 201325Z 13004KT M01/M06 A3025 RMK A01 T10051058  RH  067%=      5-min Rain = 0
KHO1 201326Z 13004KT M00/M06 A3025 RMK A01 T10041058  RH  067%=      5-min Rain = 0
KHO1 201327Z 13003KT M00/M06 A3025 RMK A01 T10041058  RH  066%=      5-min Rain = 0
KHO1 201328Z 13003KT M00/M06 A3025 RMK A01 T10031058  RH  066%=      5-min Rain = 0
KHO1 201329Z 13003KT M00/M06 A3025 RMK A01 T10031059  RH  066%=      5-min Rain = 0
KHO1 201330Z 13003KT M00/M06 A3025 RMK A01 T10021059  RH  066%=      5-min Rain = 0
KHO1 201331Z 13002KT M00/M06 A3025 RMK A01 T10021059  RH  066%=      5-min Rain = 0
KHO1 201332Z 14003KT M00/M06 A3025 RMK A01 T10021058  RH  066%=      5-min Rain = 0
KHO1 201333Z 14002KT M00/M06 A3025 RMK A01 T10021059  RH  065%=      5-min Rain = 0
KHO1 201334Z 14002KT M00/M06 A3025 RMK A01 T10021059  RH  065%=      5-min Rain = 0
KHO1 201335Z 14002KT M00/M06 A3025 RMK A01 T10021060  RH  065%=      5-min Rain = 0
KHO1 201336Z 14002KT M00/M06 A3025 RMK A01 T10031061  RH  065%=      5-min Rain = 0
KHO1 201337Z 15002KT M00/M06 A3025 RMK A01 T10041061  RH  065%=      5-min Rain = 0
KHO1 201338Z 15002KT M00/M06 A3025 RMK A01 T10041061  RH  066%=      5-min Rain = 0
KHO1 201339Z 15002KT M01/M06 A3025 RMK A01 T10051061  RH  066%=      5-min Rain = 0
KHO1 201340Z 15001KT M01/M06 A3025 RMK A01 T10051062  RH  066%=      5-min Rain = 0
KHO1 201341Z 15001KT M01/M06 A3025 RMK A01 T10061062  RH  066%=      5-min Rain = 0
KHO1 201342Z 15001KT M01/M06 A3025 RMK A01 T10071062  RH  066%=      5-min Rain = 0
KHO1 201343Z 15001KT M01/M06 A3025 RMK A01 T10071062  RH  067%=      5-min Rain = 0
KHO1 201344Z 15001KT M01/M06 A3025 RMK A01 T10071062  RH  067%=      5-min Rain = 0
KHO1 201345Z 15001KT M01/M06 A3025 RMK A01 T10081062  RH  067%=      5-min Rain = 0
KHO1 201346Z 15002KT M01/M06 A3025 RMK A01 T10081061  RH  067%=      5-min Rain = 0
KHO1 201347Z 15002KT M01/M06 A3025 RMK A01 T10081060  RH  068%=      5-min Rain = 0
KHO1 201348Z 15002KT M01/M06 A3025 RMK A01 T10081060  RH  068%=      5-min Rain = 0
KHO1 201349Z 14002KT M01/M06 A3026 RMK A01 T10081060  RH  068%=      5-min Rain = 0
KHO1 201350Z 14002KT M01/M06 A3025 RMK A01 T10081060  RH  068%=      5-min Rain = 0
KHO1 201351Z 14002KT M01/M06 A3026 RMK A01 T10091060  RH  068%=      5-min Rain = 0
KHO1 201352Z 14002KT M01/M06 A3025 RMK A01 T10091060  RH  068%=      5-min Rain = 0
KHO1 201353Z 14002KT M01/M06 A3025 RMK A01 T10091060  RH  068%=      5-min Rain = 0
KHO1 201354Z 14002KT M01/M06 A3025 RMK A01 T10091060  RH  068%=      5-min Rain = 0
KHO1 201355Z 14002KT M01/M06 A3025 RMK A01 T10091060  RH  069%=      5-min Rain = 0
KHO1 201356Z 15002KT M01/M06 A3025 RMK A01 T10101060  RH  069%=      5-min Rain = 0
KHO1 201357Z 15003KT M01/M06 A3025 RMK A01 T10101060  RH  069%=      5-min Rain = 0
KHO1 201358Z 15003KT M01/M06 A3025 RMK A01 T10101059  RH  069%=      5-min Rain = 0
KHO1 201359Z 15003KT M01/M06 A3025 RMK A01 T10101059  RH  069%=      5-min Rain = 0
KHO1 201400Z 15003KT M01/M06 A3025 RMK A01 T10101059  RH  070%=      5-min Rain = 0
KHO1 201401Z 15003KT M01/M06 A3025 RMK A01 T10101059  RH  070%=      5-min Rain = 0
KHO1 201402Z 15003KT M01/M06 A3025 RMK A01 T10111059  RH  070%=      5-min Rain = 0
KHO1 201403Z 16002KT M01/M06 A3025 RMK A01 T10111059  RH  070%=      5-min Rain = 0
KHO1 201404Z 16002KT M01/M06 A3025 RMK A01 T10111060  RH  070%=      5-min Rain = 0
KHO1 201405Z 16002KT M01/M06 A3025 RMK A01 T10121060  RH  070%=      5-min Rain = 0
KHO1 201406Z 17002KT M01/M06 A3026 RMK A01 T10131060  RH  070%=      5-min Rain = 0
KHO1 201407Z 17002KT M01/M06 A3026 RMK A01 T10131060  RH  070%=      5-min Rain = 0
KHO1 201408Z 17002KT M01/M06 A3026 RMK A01 T10141060  RH  070%=      5-min Rain = 0
KHO1 201409Z 17002KT M01/M06 A3026 RMK A01 T10141060  RH  071%=      5-min Rain = 0
KHO1 201410Z 17002KT M01/M06 A3026 RMK A01 T10141060  RH  071%=      5-min Rain = 0
KHO1 201411Z 17002KT M01/M06 A3026 RMK A01 T10141059  RH  071%=      5-min Rain = 0
KHO1 201412Z 17002KT M01/M06 A3026 RMK A01 T10141059  RH  071%=      5-min Rain = 0
KHO1 201413Z 17002KT M01/M06 A3026 RMK A01 T10141059  RH  071%=      5-min Rain = 0
KHO1 201414Z 17002KT M01/M06 A3026 RMK A01 T10131059  RH  071%=      5-min Rain = 0
KHO1 201415Z 17002KT M01/M06 A3026 RMK A01 T10131059  RH  071%=      5-min Rain = 0
KHO1 201416Z 17002KT M01/M06 A3026 RMK A01 T10131058  RH  071%=      5-min Rain = 0
KHO1 201417Z 17002KT M01/M06 A3026 RMK A01 T10131058  RH  072%=      5-min Rain = 0
KHO1 201418Z 17001KT M01/M06 A3026 RMK A01 T10131057  RH  072%=      5-min Rain = 0
KHO1 201419Z 00000KT M01/M06 A3026 RMK A01 T10121056  RH  072%=      5-min Rain = 0
KHO1 201420Z 00000KT M01/M06 A3026 RMK A01 T10111055  RH  072%=      5-min Rain = 0
KHO1 201421Z 00000KT M01/M05 A3026 RMK A01 T10111054  RH  072%=      5-min Rain = 0
KHO1 201422Z 00000KT M01/M05 A3026 RMK A01 T10091054  RH  072%=      5-min Rain = 0
KHO1 201423Z 00000KT M01/M05 A3026 RMK A01 T10081053  RH  071%=      5-min Rain = 0
KHO1 201424Z 00000KT M01/M05 A3026 RMK A01 T10051051  RH  071%=      5-min Rain = 0
KHO1 201425Z 00000KT M00/M05 A3026 RMK A01 T10031050  RH  071%=      5-min Rain = 0
KHO1 201426Z 17001KT M00/M05 A3026 RMK A01 T10011049  RH  070%=      5-min Rain = 0
KHO1 201427Z 17002KT 00/M05 A3026 RMK A01 T00011050  RH  069%=      5-min Rain = 0
KHO1 201428Z 17002KT 00/M05 A3026 RMK A01 T00011051  RH  068%=      5-min Rain = 0
KHO1 201429Z 17002KT 00/M05 A3026 RMK A01 T00011053  RH  067%=      5-min Rain = 0
KHO1 201430Z 17002KT 00/M05 A3026 RMK A01 T00011052  RH  067%=      5-min Rain = 0
KHO1 201431Z 17002KT 00/M05 A3026 RMK A01 T00011052  RH  067%=      5-min Rain = 0
KHO1 201432Z 17002KT 00/M05 A3026 RMK A01 T00011053  RH  067%=      5-min Rain = 0
KHO1 201433Z 17002KT 00/M05 A3026 RMK A01 T00011053  RH  067%=      5-min Rain = 0
KHO1 201434Z 17002KT 00/M05 A3026 RMK A01 T00021051  RH  068%=      5-min Rain = 0
KHO1 201435Z 17001KT 00/M05 A3026 RMK A01 T00031049  RH  068%=      5-min Rain = 0
KHO1 201436Z 17001KT 00/M05 A3026 RMK A01 T00031050  RH  068%=      5-min Rain = 0
KHO1 201437Z 18002KT 00/M05 A3026 RMK A01 T00021051  RH  068%=      5-min Rain = 0
KHO1 201438Z 19002KT 00/M05 A3026 RMK A01 T00021050  RH  068%=      5-min Rain = 0
KHO1 201439Z 18002KT 00/M05 A3026 RMK A01 T00031049  RH  068%=      5-min Rain = 0
KHO1 201440Z 18002KT 00/M05 A3026 RMK A01 T00031049  RH  068%=      5-min Rain = 0
KHO1 201441Z 19002KT 00/M05 A3026 RMK A01 T00041048  RH  068%=      5-min Rain = 0
KHO1 201442Z 19002KT 00/M05 A3026 RMK A01 T00041048  RH  068%=      5-min Rain = 0
KHO1 201443Z 20002KT 00/M05 A3026 RMK A01 T00041047  RH  068%=      5-min Rain = 0
KHO1 201444Z 20002KT 01/M05 A3026 RMK A01 T00051046  RH  069%=      5-min Rain = 0
KHO1 201445Z 20002KT 01/M05 A3026 RMK A01 T00051045  RH  069%=      5-min Rain = 0
KHO1 201446Z 19002KT 01/M04 A3026 RMK A01 T00061044  RH  069%=      5-min Rain = 0
KHO1 201447Z 19002KT 01/M05 A3027 RMK A01 T00061045  RH  069%=      5-min Rain = 0
KHO1 201448Z 19003KT 01/M04 A3027 RMK A01 T00071044  RH  069%=      5-min Rain = 0
KHO1 201449Z 19003KT 01/M05 A3027 RMK A01 T00081045  RH  068%=      5-min Rain = 0
KHO1 201450Z 19003KT 01/M05 A3027 RMK A01 T00081048  RH  066%=      5-min Rain = 0
KHO1 201451Z 20003KT 01/M05 A3027 RMK A01 T00091048  RH  066%=      5-min Rain = 0
KHO1 201452Z 20003KT 01/M05 A3026 RMK A01 T00091050  RH  065%=      5-min Rain = 0
KHO1 201453Z 20002KT 01/M05 A3026 RMK A01 T00091050  RH  065%=      5-min Rain = 0
KHO1 201454Z 20002KT 01/M05 A3026 RMK A01 T00101049  RH  065%=      5-min Rain = 0
KHO1 201455Z 20002KT 01/M05 A3026 RMK A01 T00101050  RH  064%=      5-min Rain = 0
KHO1 201456Z 19002KT 01/M05 A3026 RMK A01 T00111048  RH  065%=      5-min Rain = 0
KHO1 201457Z 19002KT 01/M05 A3026 RMK A01 T00111046  RH  065%=      5-min Rain = 0
KHO1 201458Z 19003KT 01/M05 A3026 RMK A01 T00121048  RH  065%=      5-min Rain = 0
KHO1 201459Z 19003KT 01/M05 A3026 RMK A01 T00121048  RH  064%=      5-min Rain = 0
KHO1 201500Z 19002KT 01/M05 A3026 RMK A01 T00121048  RH  064%=      5-min Rain = 0
KHO1 201501Z 20001KT 01/M05 A3026 RMK A01 T00121047  RH  064%=      5-min Rain = 0
KHO1 201502Z 21002KT 01/M05 A3026 RMK A01 T00131047  RH  064%=      5-min Rain = 0
KHO1 201503Z 21002KT 01/M05 A3026 RMK A01 T00131047  RH  064%=      5-min Rain = 0
KHO1 201504Z 21003KT 01/M05 A3026 RMK A01 T00141046  RH  065%=      5-min Rain = 0
KHO1 201505Z 20004KT 01/M05 A3026 RMK A01 T00141046  RH  065%=      5-min Rain = 0
KHO1 201506Z 19004KT 02/M05 A3027 RMK A01 T00151045  RH  065%=      5-min Rain = 0
KHO1 201507Z 20003KT 02/M05 A3027 RMK A01 T00151045  RH  064%=      5-min Rain = 0
KHO1 201508Z 20003KT 02/M04 A3026 RMK A01 T00161044  RH  064%=      5-min Rain = 0
KHO1 201509Z 19003KT 02/M04 A3026 RMK A01 T00171043  RH  064%=      5-min Rain = 0
KHO1 201510Z 19004KT 02/M04 A3026 RMK A01 T00181043  RH  064%=      5-min Rain = 0
KHO1 201511Z 19004KT 02/M04 A3026 RMK A01 T00191042  RH  064%=      5-min Rain = 0
KHO1 201512Z 19006KT 02/M04 A3026 RMK A01 T00201043  RH  063%=      5-min Rain = 0
KHO1 201513Z 19006KT 02/M04 A3026 RMK A01 T00211044  RH  062%=      5-min Rain = 0
KHO1 201514Z 20004KT 02/M04 A3026 RMK A01 T00221041  RH  063%=      5-min Rain = 0
KHO1 201515Z 20006KT 02/M04 A3026 RMK A01 T00231044  RH  062%=      5-min Rain = 0
KHO1 201516Z 20004KT 02/M04 A3026 RMK A01 T00231042  RH  062%=      5-min Rain = 0
KHO1 201517Z 20005KT 02/M04 A3026 RMK A01 T00231043  RH  062%=      5-min Rain = 0
KHO1 201518Z 21004KT 02/M04 A3026 RMK A01 T00241042  RH  062%=      5-min Rain = 0
KHO1 201519Z 20005KT 03/M04 A3027 RMK A01 T00251040  RH  062%=      5-min Rain = 0
KHO1 201520Z 20004KT 03/M04 A3027 RMK A01 T00251040  RH  062%=      5-min Rain = 0
KHO1 201521Z 20004KT 03/M04 A3027 RMK A01 T00261039  RH  062%=      5-min Rain = 0
KHO1 201522Z 20005KT 03/M04 A3027 RMK A01 T00271038  RH  062%=      5-min Rain = 0
KHO1 201523Z 20006KT 03/M04 A3027 RMK A01 T00281039  RH  061%=      5-min Rain = 0
KHO1 201524Z 20005KT 03/M04 A3027 RMK A01 T00291039  RH  061%=      5-min Rain = 0
KHO1 201525Z 21006KT 03/M04 A3027 RMK A01 T00301039  RH  060%=      5-min Rain = 0
KHO1 201526Z 20007KT 03/M04 A3027 RMK A01 T00321041  RH  059%=      5-min Rain = 0
KHO1 201527Z 20007KT 03/M05 A3027 RMK A01 T00321045  RH  057%=      5-min Rain = 0
KHO1 201528Z 20008KT 03/M05 A3027 RMK A01 T00311046  RH  057%=      5-min Rain = 0
KHO1 201529Z 20006KT 03/M04 A3027 RMK A01 T00311044  RH  058%=      5-min Rain = 0
KHO1 201530Z 20006KT 03/M04 A3026 RMK A01 T00321044  RH  058%=      5-min Rain = 0
KHO1 201531Z 20005KT 03/M04 A3027 RMK A01 T00331043  RH  058%=      5-min Rain = 0
KHO1 201532Z 21005KT 03/M04 A3027 RMK A01 T00341041  RH  058%=      5-min Rain = 0
KHO1 201533Z 21006KT 03/M04 A3026 RMK A01 T00341043  RH  057%=      5-min Rain = 0
KHO1 201534Z 21006KT 04/M04 A3026 RMK A01 T00351042  RH  057%=      5-min Rain = 0
KHO1 201535Z 21006KT 04/M04 A3026 RMK A01 T00361042  RH  057%=      5-min Rain = 0
KHO1 201536Z 21005KT 04/M04 A3026 RMK A01 T00351043  RH  057%=      5-min Rain = 0
KHO1 201537Z 20004KT 04/M04 A3026 RMK A01 T00361041  RH  057%=      5-min Rain = 0
KHO1 201538Z 21005KT 04/M04 A3027 RMK A01 T00381040  RH  057%=      5-min Rain = 0
KHO1 201539Z 21006KT 04/M04 A3026 RMK A01 T00381044  RH  055%=      5-min Rain = 0
KHO1 201540Z 21006KT 04/M05 A3026 RMK A01 T00391045  RH  054%=      5-min Rain = 0
KHO1 201541Z 20007KT 04/M05 A3026 RMK A01 T00391045  RH  054%=      5-min Rain = 0
KHO1 201542Z 19007KT 04/M05 A3026 RMK A01 T00391045  RH  054%=      5-min Rain = 0
KHO1 201543Z 19006KT 04/M05 A3026 RMK A01 T00391045  RH  054%=      5-min Rain = 0
KHO1 201544Z 20006KT 04/M04 A3026 RMK A01 T00401044  RH  054%=      5-min Rain = 0
KHO1 201545Z 20005KT 04/M04 A3026 RMK A01 T00411042  RH  055%=      5-min Rain = 0
KHO1 201546Z 21005KT 04/M04 A3026 RMK A01 T00421043  RH  054%=      5-min Rain = 0
KHO1 201547Z 21007KT 04/M05 A3026 RMK A01 T00421045  RH  053%=      5-min Rain = 0
KHO1 201548Z 20005KT 04/M04 A3026 RMK A01 T00421044  RH  053%=      5-min Rain = 0
KHO1 201549Z 19006KT 04/M04 A3026 RMK A01 T00431044  RH  053%=      5-min Rain = 0
KHO1 201550Z 19006KT 04/M04 A3026 RMK A01 T00441044  RH  053%=      5-min Rain = 0
KHO1 201551Z 19005KT 04/M04 A3026 RMK A01 T00441044  RH  052%=      5-min Rain = 0
KHO1 201552Z 19005KT 05/M05 A3026 RMK A01 T00451045  RH  052%=      5-min Rain = 0
KHO1 201553Z 19006KT 05/M05 A3026 RMK A01 T00471045  RH  051%=      5-min Rain = 0
KHO1 201554Z 19005KT 05/M05 A3026 RMK A01 T00471047  RH  051%=      5-min Rain = 0
KHO1 201555Z 20005KT 05/M05 A3026 RMK A01 T00471047  RH  051%=      5-min Rain = 0
KHO1 201556Z 20005KT 05/M05 A3026 RMK A01 T00481047  RH  050%=      5-min Rain = 0
KHO1 201557Z 20005KT 05/M05 A3026 RMK A01 T00471048  RH  050%=      5-min Rain = 0
KHO1 201558Z 20005KT 05/M05 A3026 RMK A01 T00481046  RH  050%=      5-min Rain = 0
KHO1 201559Z 20007KT 05/M05 A3026 RMK A01 T00491050  RH  049%=      5-min Rain = 0
KHO1 201600Z 20006KT 05/M05 A3026 RMK A01 T00481049  RH  049%=      5-min Rain = 0
KHO1 201601Z 20005KT 05/M05 A3026 RMK A01 T00481050  RH  049%=      5-min Rain = 0
KHO1 201602Z 19005KT 05/M05 A3026 RMK A01 T00491047  RH  050%=      5-min Rain = 0
KHO1 201603Z 18005KT 05/M05 A3026 RMK A01 T00491050  RH  049%=      5-min Rain = 0
KHO1 201604Z 20005KT 05/M05 A3026 RMK A01 T00501047  RH  049%=      5-min Rain = 0
KHO1 201605Z 18005KT 05/M05 A3026 RMK A01 T00511049  RH  049%=      5-min Rain = 0
KHO1 201606Z 19006KT 05/M05 A3026 RMK A01 T00501050  RH  048%=      5-min Rain = 0
KHO1 201607Z 19007KT 05/M05 A3026 RMK A01 T00501051  RH  048%=      5-min Rain = 0
KHO1 201608Z 19006KT 05/M05 A3026 RMK A01 T00501051  RH  048%=      5-min Rain = 0
KHO1 201609Z 19006KT 05/M05 A3026 RMK A01 T00501050  RH  048%=      5-min Rain = 0
KHO1 201610Z 20005KT 05/M05 A3026 RMK A01 T00521048  RH  049%=      5-min Rain = 0
KHO1 201611Z 19004KT 05/M05 A3026 RMK A01 T00541045  RH  049%=      5-min Rain = 0
KHO1 201612Z 19007KT 06/M05 A3026 RMK A01 T00561048  RH  047%=      5-min Rain = 0
KHO1 201613Z 19007KT 06/M05 A3026 RMK A01 T00551052  RH  046%=      5-min Rain = 0
KHO1 201614Z 19007KT 05/M05 A3026 RMK A01 T00541052  RH  046%=      5-min Rain = 0
KHO1 201615Z 20007KT 05/M05 A3026 RMK A01 T00541052  RH  046%=      5-min Rain = 0
KHO1 201616Z 20007KT 05/M05 A3026 RMK A01 T00541052  RH  046%=      5-min Rain = 0
KHO1 201617Z 21007KT 05/M05 A3026 RMK A01 T00541052  RH  046%=      5-min Rain = 0
KHO1 201618Z 21007KT 06/M05 A3026 RMK A01 T00551052  RH  046%=      5-min Rain = 0
KHO1 201619Z 20006KT 06/M05 A3026 RMK A01 T00551052  RH  046%=      5-min Rain = 0
KHO1 201620Z 19007KT 06/M05 A3026 RMK A01 T00561053  RH  045%=      5-min Rain = 0
KHO1 201621Z 20008KT 06/M05 A3026 RMK A01 T00561053  RH  045%=      5-min Rain = 0
KHO1 201622Z 20007KT 06/M05 A3026 RMK A01 T00571052  RH  046%=      5-min Rain = 0
KHO1 201623Z 19008KT 06/M05 A3026 RMK A01 T00571052  RH  045%=      5-min Rain = 0
KHO1 201624Z 19007KT 06/M05 A3026 RMK A01 T00581051  RH  045%=      5-min Rain = 0
KHO1 201625Z 19007KT 06/M05 A3026 RMK A01 T00581052  RH  045%=      5-min Rain = 0
KHO1 201626Z 20007KT 06/M05 A3026 RMK A01 T00591052  RH  045%=      5-min Rain = 0
KHO1 201627Z 19007KT 06/M05 A3026 RMK A01 T00601052  RH  045%=      5-min Rain = 0
KHO1 201628Z 20006KT 06/M05 A3026 RMK A01 T00611050  RH  045%=      5-min Rain = 0
KHO1 201629Z 20007KT 06/M05 A3026 RMK A01 T00631051  RH  044%=      5-min Rain = 0
KHO1 201630Z 21007KT 06/M05 A3026 RMK A01 T00621054  RH  043%=      5-min Rain = 0
KHO1 201631Z 21006KT 06/M05 A3026 RMK A01 T00621052  RH  044%=      5-min Rain = 0
KHO1 201632Z 21006KT 06/M05 A3026 RMK A01 T00641051  RH  044%=      5-min Rain = 0
KHO1 201633Z 22006KT 07/M05 A3026 RMK A01 T00651049  RH  044%=      5-min Rain = 0
KHO1 201634Z 22005KT 07/M05 A3026 RMK A01 T00661052  RH  043%=      5-min Rain = 0
KHO1 201635Z 22005KT 07/M05 A3026 RMK A01 T00661049  RH  044%=      5-min Rain = 0
KHO1 201636Z 21004KT 07/M05 A3026 RMK A01 T00671049  RH  043%=      5-min Rain = 0
KHO1 201637Z 22004KT 07/M05 A3026 RMK A01 T00691047  RH  043%=      5-min Rain = 0
KHO1 201638Z 22005KT 07/M05 A3026 RMK A01 T00691052  RH  042%=      5-min Rain = 0
KHO1 201639Z 22005KT 07/M05 A3026 RMK A01 T00701053  RH  041%=      5-min Rain = 0
KHO1 201640Z 21006KT 07/M06 A3026 RMK A01 T00701056  RH  040%=      5-min Rain = 0
KHO1 201641Z 23005KT 07/M05 A3026 RMK A01 T00711052  RH  041%=      5-min Rain = 0
KHO1 201642Z 23004KT 07/M05 A3026 RMK A01 T00731049  RH  041%=      5-min Rain = 0
KHO1 201643Z 22004KT 08/M05 A3026 RMK A01 T00751052  RH  040%=      5-min Rain = 0
KHO1 201644Z 23005KT 07/M05 A3026 RMK A01 T00741053  RH  040%=      5-min Rain = 0
KHO1 201645Z 23006KT 08/M05 A3026 RMK A01 T00751053  RH  040%=      5-min Rain = 0
KHO1 201646Z 23006KT 08/M06 A3026 RMK A01 T00761055  RH  039%=      5-min Rain = 0
KHO1 201647Z 23007KT 08/M06 A3026 RMK A01 T00771056  RH  039%=      5-min Rain = 0
KHO1 201648Z 22006KT 08/M06 A3026 RMK A01 T00781056  RH  038%=      5-min Rain = 0
KHO1 201649Z 22007KT 08/M06 A3027 RMK A01 T00811057  RH  037%=      5-min Rain = 0
KHO1 201650Z 23007KT 08/M06 A3027 RMK A01 T00811060  RH  036%=      5-min Rain = 0
KHO1 201651Z 22005KT 08/M06 A3027 RMK A01 T00811059  RH  036%=      5-min Rain = 0
KHO1 201652Z 23006KT 08/M06 A3027 RMK A01 T00831057  RH  037%=      5-min Rain = 0
KHO1 201653Z 23006KT 08/M06 A3027 RMK A01 T00831058  RH  036%=      5-min Rain = 0
KHO1 201654Z 24007KT 08/M06 A3027 RMK A01 T00841058  RH  036%=      5-min Rain = 0
KHO1 201655Z 23007KT 08/M06 A3027 RMK A01 T00841063  RH  035%=      5-min Rain = 0
KHO1 201656Z 22007KT 09/M06 A3026 RMK A01 T00861062  RH  034%=      5-min Rain = 0
KHO1 201657Z 22006KT 09/M06 A3026 RMK A01 T00881061  RH  034%=      5-min Rain = 0
KHO1 201658Z 22006KT 09/M06 A3026 RMK A01 T00891062  RH  034%=      5-min Rain = 0
KHO1 201659Z 21008KT 09/M06 A3026 RMK A01 T00901063  RH  033%=      5-min Rain = 0
KHO1 201700Z 22007KT 09/M06 A3026 RMK A01 T00901064  RH  033%=      5-min Rain = 0
KHO1 201701Z 22005KT 09/M06 A3026 RMK A01 T00911060  RH  034%=      5-min Rain = 0
KHO1 201702Z 23007KT 09/M06 A3026 RMK A01 T00931062  RH  033%=      5-min Rain = 0
KHO1 201703Z 22006KT 09/M06 A3026 RMK A01 T00921064  RH  032%=      5-min Rain = 0
KHO1 201704Z 22005KT 09/M06 A3026 RMK A01 T00931061  RH  033%=      5-min Rain = 0
KHO1 201705Z 21006KT 09/M06 A3026 RMK A01 T00941062  RH  033%=      5-min Rain = 0
KHO1 201706Z 22005KT 09/M06 A3026 RMK A01 T00941062  RH  033%=      5-min Rain = 0
KHO1 201707Z 22007KT 10/M06 A3026 RMK A01 T00951061  RH  033%=      5-min Rain = 0
KHO1 201708Z 22007KT 10/M07 A3026 RMK A01 T00961067  RH  031%=      5-min Rain = 0
KHO1 201709Z 22006KT 10/M06 A3026 RMK A01 T00971063  RH  032%=      5-min Rain = 0
KHO1 201710Z 23006KT 10/M06 A3026 RMK A01 T01001063  RH  031%=      5-min Rain = 0
KHO1 201711Z 23007KT 10/M06 A3026 RMK A01 T01011064  RH  031%=      5-min Rain = 0
KHO1 201712Z 20007KT 10/M07 A3026 RMK A01 T01021065  RH  030%=      5-min Rain = 0
KHO1 201713Z 20008KT 10/M07 A3026 RMK A01 T01011068  RH  030%=      5-min Rain = 0
KHO1 201714Z 21008KT 10/M07 A3026 RMK A01 T01011068  RH  030%=      5-min Rain = 0
KHO1 201715Z 21008KT 10/M07 A3026 RMK A01 T01011069  RH  029%=      5-min Rain = 0
KHO1 201716Z 20007KT 10/M07 A3026 RMK A01 T01011066  RH  030%=      5-min Rain = 0
KHO1 201717Z 20006KT 10/M07 A3025 RMK A01 T01021065  RH  030%=      5-min Rain = 0
KHO1 201718Z 19007KT 10/M06 A3025 RMK A01 T01041064  RH  030%=      5-min Rain = 0
KHO1 201719Z 19006KT 11/M06 A3025 RMK A01 T01051064  RH  030%=      5-min Rain = 0
KHO1 201720Z 19008KT 11/M07 A3025 RMK A01 T01061065  RH  030%=      5-min Rain = 0
KHO1 201721Z 19007KT 11/M07 A3025 RMK A01 T01051067  RH  029%=      5-min Rain = 0
KHO1 201722Z 20007KT 10/M07 A3025 RMK A01 T01041065  RH  030%=      5-min Rain = 0
KHO1 201723Z 19009KT 11/M07 A3025 RMK A01 T01061067  RH  029%=      5-min Rain = 0
KHO1 201724Z 20009KT 11/M07 A3025 RMK A01 T01071069  RH  029%=      5-min Rain = 0
KHO1 201725Z 21008KT 11/M07 A3025 RMK A01 T01071070  RH  028%=      5-min Rain = 0
KHO1 201726Z 21008KT 11/M07 A3025 RMK A01 T01081069  RH  028%=      5-min Rain = 0
KHO1 201727Z 22008KT 11/M07 A3025 RMK A01 T01071072  RH  028%=      5-min Rain = 0
KHO1 201728Z 21006KT 11/M06 A3025 RMK A01 T01091064  RH  029%=      5-min Rain = 0
KHO1 201729Z 20007KT 11/M06 A3025 RMK A01 T01121061  RH  029%=      5-min Rain = 0
KHO1 201730Z 20007KT 11/M07 A3025 RMK A01 T01081066  RH  029%=      5-min Rain = 0
KHO1 201731Z 20007KT 11/M06 A3025 RMK A01 T01091062  RH  030%=      5-min Rain = 0
KHO1 201732Z 21007KT 11/M06 A3025 RMK A01 T01111060  RH  030%=      5-min Rain = 0
KHO1 201733Z 20007KT 11/M06 A3025 RMK A01 T01121061  RH  029%=      5-min Rain = 0
KHO1 201734Z 21007KT 11/M07 A3025 RMK A01 T01121065  RH  028%=      5-min Rain = 0
KHO1 201735Z 21006KT 11/M07 A3025 RMK A01 T01091067  RH  029%=      5-min Rain = 0
KHO1 201736Z 22007KT 11/M06 A3025 RMK A01 T01091064  RH  029%=      5-min Rain = 0
KHO1 201737Z 22006KT 11/M07 A3024 RMK A01 T01101067  RH  028%=      5-min Rain = 0
KHO1 201738Z 22008KT 11/M07 A3025 RMK A01 T01111069  RH  028%=      5-min Rain = 0
KHO1 201739Z 22007KT 11/M07 A3025 RMK A01 T01131067  RH  028%=      5-min Rain = 0
KHO1 201740Z 22006KT 11/M07 A3025 RMK A01 T01111070  RH  027%=      5-min Rain = 0
KHO1 201741Z 21007KT 11/M07 A3024 RMK A01 T01121069  RH  027%=      5-min Rain = 0
KHO1 201742Z 21008KT 11/M07 A3024 RMK A01 T01141072  RH  027%=      5-min Rain = 0
KHO1 201743Z 22008KT 12/M07 A3024 RMK A01 T01151069  RH  027%=      5-min Rain = 0
KHO1 201744Z 21007KT 12/M07 A3024 RMK A01 T01151070  RH  027%=      5-min Rain = 0
KHO1 201745Z 21005KT 12/M07 A3024 RMK A01 T01151067  RH  027%=      5-min Rain = 0
KHO1 201746Z 21005KT 12/M07 A3024 RMK A01 T01161067  RH  027%=      5-min Rain = 0
KHO1 201747Z 22008KT 12/M07 A3024 RMK A01 T01191068  RH  026%=      5-min Rain = 0
KHO1 201748Z 21007KT 12/M07 A3024 RMK A01 T01181071  RH  026%=      5-min Rain = 0
KHO1 201749Z 21006KT 12/M07 A3024 RMK A01 T01201071  RH  026%=      5-min Rain = 0
KHO1 201750Z 20009KT 12/M07 A3024 RMK A01 T01201072  RH  025%=      5-min Rain = 0
KHO1 201751Z 20008KT 12/M07 A3024 RMK A01 T01181071  RH  026%=      5-min Rain = 0
KHO1 201752Z 20007KT 12/M07 A3024 RMK A01 T01191073  RH  025%=      5-min Rain = 0
KHO1 201753Z 21007KT 12/M07 A3024 RMK A01 T01191069  RH  026%=      5-min Rain = 0
KHO1 201754Z 21007KT 12/M07 A3024 RMK A01 T01201069  RH  026%=      5-min Rain = 0
KHO1 201755Z 19007KT 12/M07 A3024 RMK A01 T01201071  RH  026%=      5-min Rain = 0
KHO1 201756Z 21008KT 12/M07 A3024 RMK A01 T01201071  RH  026%=      5-min Rain = 0
KHO1 201757Z 22007KT 12/M07 A3024 RMK A01 T01211073  RH  025%=      5-min Rain = 0
KHO1 201758Z 22005KT 12/M07 A3024 RMK A01 T01211069  RH  026%=      5-min Rain = 0
KHO1 201759Z 23006KT 13/M06 A3024 RMK A01 T01251063  RH  026%=      5-min Rain = 0
KHO1 201800Z 21006KT 13/M07 A3024 RMK A01 T01251067  RH  026%=      5-min Rain = 0
KHO1 201801Z 21008KT 12/M07 A3024 RMK A01 T01231070  RH  025%=      5-min Rain = 0
KHO1 201802Z 21006KT 12/M07 A3024 RMK A01 T01221071  RH  025%=      5-min Rain = 0
KHO1 201803Z 22005KT 12/M07 A3024 RMK A01 T01221070  RH  026%=      5-min Rain = 0
KHO1 201804Z 21007KT 13/M07 A3024 RMK A01 T01251067  RH  026%=      5-min Rain = 0
KHO1 201805Z 22008KT 13/M07 A3023 RMK A01 T01251072  RH  025%=      5-min Rain = 0
KHO1 201806Z 21008KT 13/M07 A3023 RMK A01 T01251072  RH  025%=      5-min Rain = 0
KHO1 201807Z 20009KT 12/M07 A3023 RMK A01 T01241074  RH  024%=      5-min Rain = 0
KHO1 201808Z 19008KT 12/M07 A3023 RMK A01 T01241073  RH  025%=      5-min Rain = 0
KHO1 201809Z 20007KT 13/M07 A3023 RMK A01 T01251068  RH  025%=      5-min Rain = 0
KHO1 201810Z 21008KT 13/M07 A3023 RMK A01 T01261071  RH  025%=      5-min Rain = 0
KHO1 201811Z 22006KT 12/M07 A3023 RMK A01 T01241071  RH  025%=      5-min Rain = 0
KHO1 201812Z 20007KT 13/M07 A3023 RMK A01 T01261071  RH  025%=      5-min Rain = 0
KHO1 201813Z 20008KT 13/M07 A3023 RMK A01 T01281070  RH  025%=      5-min Rain = 0
KHO1 201814Z 21007KT 13/M07 A3023 RMK A01 T01301069  RH  024%=      5-min Rain = 0
KHO1 201815Z 21007KT 13/M07 A3023 RMK A01 T01301072  RH  024%=      5-min Rain = 0
KHO1 201816Z 21006KT 13/M07 A3023 RMK A01 T01281074  RH  024%=      5-min Rain = 0
KHO1 201817Z 21006KT 13/M07 A3023 RMK A01 T01281070  RH  025%=      5-min Rain = 0
KHO1 201818Z 21007KT 13/M07 A3023 RMK A01 T01311069  RH  024%=      5-min Rain = 0
KHO1 201819Z 21005KT 13/M07 A3023 RMK A01 T01321069  RH  024%=      5-min Rain = 0
KHO1 201820Z 21008KT 13/M07 A3023 RMK A01 T01331071  RH  024%=      5-min Rain = 0
KHO1 201821Z 21008KT 13/M08 A3023 RMK A01 T01321075  RH  023%=      5-min Rain = 0
KHO1 201822Z 21007KT 13/M07 A3023 RMK A01 T01311073  RH  023%=      5-min Rain = 0
KHO1 201823Z 22007KT 13/M08 A3023 RMK A01 T01321075  RH  023%=      5-min Rain = 0
KHO1 201824Z 22007KT 13/M07 A3023 RMK A01 T01341072  RH  023%=      5-min Rain = 0
KHO1 201825Z 20007KT 13/M07 A3023 RMK A01 T01331074  RH  023%=      5-min Rain = 0
KHO1 201826Z 20006KT 13/M07 A3023 RMK A01 T01331074  RH  023%=      5-min Rain = 0
KHO1 201827Z 21006KT 14/M07 A3023 RMK A01 T01361069  RH  023%=      5-min Rain = 0
KHO1 201828Z 21008KT 14/M08 A3023 RMK A01 T01351081  RH  021%=      5-min Rain = 0
KHO1 201829Z 21006KT 13/M08 A3023 RMK A01 T01331076  RH  023%=      5-min Rain = 0
KHO1 201830Z 22008KT 13/M08 A3023 RMK A01 T01341079  RH  022%=      5-min Rain = 0
KHO1 201831Z 22005KT 13/M08 A3023 RMK A01 T01341076  RH  023%=      5-min Rain = 0
KHO1 201832Z 22006KT 14/M07 A3022 RMK A01 T01371073  RH  023%=      5-min Rain = 0
KHO1 201833Z 21008KT 14/M08 A3022 RMK A01 T01361075  RH  022%=      5-min Rain = 0
KHO1 201834Z 21008KT 14/M08 A3022 RMK A01 T01361077  RH  022%=      5-min Rain = 0
KHO1 201835Z 19008KT 14/M08 A3022 RMK A01 T01361078  RH  022%=      5-min Rain = 0
KHO1 201836Z 20008KT 14/M07 A3022 RMK A01 T01371073  RH  023%=      5-min Rain = 0
KHO1 201837Z 21007KT 14/M08 A3022 RMK A01 T01371075  RH  022%=      5-min Rain = 0
KHO1 201838Z 21004KT 14/M07 A3022 RMK A01 T01371074  RH  022%=      5-min Rain = 0
KHO1 201839Z 20007KT 14/M07 A3022 RMK A01 T01391072  RH  022%=      5-min Rain = 0
KHO1 201840Z 19007KT 14/M07 A3022 RMK A01 T01391073  RH  022%=      5-min Rain = 0
KHO1 201841Z 18008KT 14/M08 A3022 RMK A01 T01401076  RH  022%=      5-min Rain = 0
KHO1 201842Z 19007KT 14/M08 A3022 RMK A01 T01381078  RH  022%=      5-min Rain = 0
KHO1 201843Z 20008KT 14/M07 A3022 RMK A01 T01391074  RH  022%=      5-min Rain = 0
KHO1 201844Z 20008KT 14/M08 A3022 RMK A01 T01411080  RH  021%=      5-min Rain = 0
KHO1 201845Z 21007KT 14/M08 A3021 RMK A01 T01401081  RH  021%=      5-min Rain = 0
KHO1 201846Z 20008KT 14/M08 A3021 RMK A01 T01401076  RH  022%=      5-min Rain = 0
KHO1 201847Z 19007KT 14/M08 A3021 RMK A01 T01401075  RH  022%=      5-min Rain = 0
KHO1 201848Z 20007KT 14/M07 A3021 RMK A01 T01411074  RH  022%=      5-min Rain = 0
KHO1 201849Z 20007KT 14/M08 A3021 RMK A01 T01421076  RH  021%=      5-min Rain = 0
KHO1 201850Z 19008KT 14/M08 A3021 RMK A01 T01411078  RH  021%=      5-min Rain = 0
KHO1 201851Z 20008KT 14/M07 A3021 RMK A01 T01411074  RH  022%=      5-min Rain = 0
KHO1 201852Z 20009KT 14/M08 A3021 RMK A01 T01431076  RH  021%=      5-min Rain = 0
KHO1 201853Z 19008KT 14/M08 A3021 RMK A01 T01421078  RH  021%=      5-min Rain = 0
KHO1 201854Z 18008KT 14/M08 A302 RMK A01 T01411077  RH  021%=      5-min Rain = 0
KHO1 201855Z 18008KT 14/M08 A302 RMK A01 T01401076  RH  022%=      5-min Rain = 0
KHO1 201856Z 21009KT 14/M08 A302 RMK A01 T01411082  RH  021%=      5-min Rain = 0
KHO1 201857Z 20008KT 14/M08 A302 RMK A01 T01411082  RH  020%=      5-min Rain = 0
KHO1 201858Z 19008KT 14/M08 A302 RMK A01 T01411077  RH  021%=      5-min Rain = 0
KHO1 201859Z 21009KT 14/M08 A302 RMK A01 T01411080  RH  021%=      5-min Rain = 0
KHO1 201900Z 21008KT 14/M08 A302 RMK A01 T01411079  RH  021%=      5-min Rain = 0
KHO1 201901Z 20008KT 14/M08 A302 RMK A01 T01421076  RH  021%=      5-min Rain = 0
KHO1 201902Z 20008KT 14/M08 A302 RMK A01 T01431076  RH  021%=      5-min Rain = 0
KHO1 201903Z 21008KT 15/M08 A302 RMK A01 T01451077  RH  021%=      5-min Rain = 0
KHO1 201904Z 19009KT 15/M08 A302 RMK A01 T01461077  RH  021%=      5-min Rain = 0
KHO1 201905Z 20008KT 14/M08 A302 RMK A01 T01441077  RH  021%=      5-min Rain = 0
KHO1 201906Z 18009KT 15/M08 A302 RMK A01 T01451077  RH  021%=      5-min Rain = 0
KHO1 201907Z 19007KT 15/M07 A302 RMK A01 T01461073  RH  021%=      5-min Rain = 0
KHO1 201908Z 19009KT 15/M07 A302 RMK A01 T01481074  RH  021%=      5-min Rain = 0
KHO1 201909Z 19010KT 15/M08 A3019 RMK A01 T01461079  RH  020%=      5-min Rain = 0
KHO1 201910Z 20010KT 15/M08 A3019 RMK A01 T01461078  RH  021%=      5-min Rain = 0
KHO1 201911Z 20008KT 15/M08 A3019 RMK A01 T01451077  RH  021%=      5-min Rain = 0
KHO1 201912Z 19008KT 15/M08 A3019 RMK A01 T01451078  RH  021%=      5-min Rain = 0
KHO1 201913Z 20008KT 14/M08 A3019 RMK A01 T01441078  RH  021%=      5-min Rain = 0
KHO1 201914Z 20008KT 14/M08 A3019 RMK A01 T01431077  RH  021%=      5-min Rain = 0
KHO1 201915Z 21007KT 14/M08 A3019 RMK A01 T01441079  RH  021%=      5-min Rain = 0
KHO1 201916Z 20006KT 15/M08 A3019 RMK A01 T01461079  RH  020%=      5-min Rain = 0
KHO1 201917Z 20008KT 15/M08 A3019 RMK A01 T01461081  RH  020%=      5-min Rain = 0
KHO1 201918Z 20009KT 15/M08 A3019 RMK A01 T01491080  RH  020%=      5-min Rain = 0
KHO1 201919Z 20008KT 15/M08 A3019 RMK A01 T01491081  RH  020%=      5-min Rain = 0
KHO1 201920Z 21007KT 15/M08 A3018 RMK A01 T01481084  RH  019%=      5-min Rain = 0
KHO1 201921Z 20008KT 15/M08 A3018 RMK A01 T01461082  RH  020%=      5-min Rain = 0
KHO1 201922Z 21007KT 15/M08 A3018 RMK A01 T01471076  RH  021%=      5-min Rain = 0
KHO1 201923Z 22007KT 15/M09 A3018 RMK A01 T01471087  RH  019%=      5-min Rain = 0
KHO1 201924Z 22008KT 15/M08 A3018 RMK A01 T01471083  RH  020%=      5-min Rain = 0
KHO1 201925Z 22009KT 15/M09 A3018 RMK A01 T01511086  RH  019%=      5-min Rain = 0
KHO1 201926Z 24007KT 15/M09 A3018 RMK A01 T01511085  RH  019%=      5-min Rain = 0
KHO1 201927Z 22006KT 15/M09 A3018 RMK A01 T01511086  RH  019%=      5-min Rain = 0
KHO1 201928Z 20008KT 15/M08 A3018 RMK A01 T01521084  RH  019%=      5-min Rain = 0
KHO1 201929Z 20008KT 15/M09 A3018 RMK A01 T01511087  RH  019%=      5-min Rain = 0
KHO1 201930Z 22011KT 15/M09 A3018 RMK A01 T01511087  RH  019%=      5-min Rain = 0
KHO1 201931Z 21011KT 15/M09 A3018 RMK A01 T01511087  RH  018%=      5-min Rain = 0
KHO1 201932Z 21009KT 15/M09 A3018 RMK A01 T01511088  RH  018%=      5-min Rain = 0
KHO1 201933Z 21008KT 15/M09 A3017 RMK A01 T01511088  RH  018%=      5-min Rain = 0
KHO1 201934Z 22009KT 15/M09 A3017 RMK A01 T01501088  RH  018%=      5-min Rain = 0
KHO1 201935Z 23010KT 15/M09 A3017 RMK A01 T01501088  RH  018%=      5-min Rain = 0
KHO1 201936Z 23010KT 15/M09 A3017 RMK A01 T01511086  RH  019%=      5-min Rain = 0
KHO1 201937Z 22010KT 15/M09 A3017 RMK A01 T01531086  RH  018%=      5-min Rain = 0
KHO1 201938Z 23010KT 15/M09 A3017 RMK A01 T01531086  RH  018%=      5-min Rain = 0
KHO1 201939Z 22010KT 15/M09 A3017 RMK A01 T01521087  RH  018%=      5-min Rain = 0
KHO1 201940Z 20010KT 15/M09 A3017 RMK A01 T01531088  RH  018%=      5-min Rain = 0
KHO1 201941Z 20008KT 15/M09 A3017 RMK A01 T01521089  RH  018%=      5-min Rain = 0
KHO1 201942Z 20006KT 15/M09 A3017 RMK A01 T01521085  RH  019%=      5-min Rain = 0
KHO1 201943Z 22010KT 16/M09 A3017 RMK A01 T01551085  RH  018%=      5-min Rain = 0
KHO1 201944Z 21010KT 15/M09 A3017 RMK A01 T01541088  RH  018%=      5-min Rain = 0
KHO1 201945Z 21012KT 16/M09 A3017 RMK A01 T01561085  RH  018%=      5-min Rain = 0
KHO1 201946Z 20009KT 16/M09 A3016 RMK A01 T01561088  RH  018%=      5-min Rain = 0
KHO1 201947Z 22008KT 16/M09 A3016 RMK A01 T01551089  RH  018%=      5-min Rain = 0
KHO1 201948Z 22009G14KT 16/M08 A3016 RMK A01 T01571083  RH  018%=      5-min Rain = 0
KHO1 201949Z 21012KT 16/M09 A3016 RMK A01 T01581087  RH  018%=      5-min Rain = 0
KHO1 201950Z 23010KT 16/M09 A3016 RMK A01 T01571089  RH  018%=      5-min Rain = 0
KHO1 201951Z 23007KT 16/M09 A3016 RMK A01 T01551090  RH  018%=      5-min Rain = 0
KHO1 201952Z 22009KT 16/M08 A3016 RMK A01 T01571084  RH  018%=      5-min Rain = 0
KHO1 201953Z 21009KT 16/M09 A3016 RMK A01 T01571088  RH  018%=      5-min Rain = 0
KHO1 201954Z 21010KT 16/M09 A3016 RMK A01 T01561088  RH  018%=      5-min Rain = 0
KHO1 201955Z 21010KT 16/M09 A3016 RMK A01 T01571087  RH  018%=      5-min Rain = 0
KHO1 201956Z 22007KT 16/M09 A3016 RMK A01 T01551089  RH  018%=      5-min Rain = 0
KHO1 201957Z 22008KT 16/M09 A3016 RMK A01 T01561086  RH  018%=      5-min Rain = 0
KHO1 201958Z 21007KT 16/M09 A3016 RMK A01 T01561089  RH  018%=      5-min Rain = 0
KHO1 201959Z 20011KT 16/M09 A3015 RMK A01 T01571085  RH  018%=      5-min Rain = 0
KHO1 202000Z 21012KT 16/M09 A3015 RMK A01 T01571088  RH  018%=      5-min Rain = 0
KHO1 202001Z 21010KT 16/M09 A3015 RMK A01 T01571086  RH  018%=      5-min Rain = 0
KHO1 202002Z 22011KT 16/M09 A3015 RMK A01 T01581086  RH  018%=      5-min Rain = 0
KHO1 202003Z 23010KT 16/M09 A3015 RMK A01 T01581086  RH  018%=      5-min Rain = 0
KHO1 202004Z 22009KT 16/M09 A3015 RMK A01 T01571086  RH  018%=      5-min Rain = 0
KHO1 202005Z 21007KT 16/M08 A3015 RMK A01 T01601081  RH  018%=      5-min Rain = 0
KHO1 202006Z 22006KT 16/M08 A3015 RMK A01 T01621083  RH  018%=      5-min Rain = 0
KHO1 202007Z 23008KT 16/M09 A3015 RMK A01 T01621085  RH  018%=      5-min Rain = 0
KHO1 202008Z 23009KT 16/M09 A3015 RMK A01 T01631085  RH  018%=      5-min Rain = 0
KHO1 202009Z 22009KT 16/M09 A3015 RMK A01 T01611087  RH  017%=      5-min Rain = 0
KHO1 202010Z 21008KT 16/M09 A3015 RMK A01 T01601088  RH  017%=      5-min Rain = 0
KHO1 202011Z 22008KT 16/M08 A3015 RMK A01 T01621082  RH  018%=      5-min Rain = 0
KHO1 202012Z 22007KT 16/M09 A3015 RMK A01 T01631086  RH  017%=      5-min Rain = 0
KHO1 202013Z 21006KT 17/M08 A3015 RMK A01 T01661081  RH  018%=      5-min Rain = 0
KHO1 202014Z 20010KT 17/M08 A3015 RMK A01 T01681084  RH  017%=      5-min Rain = 0
KHO1 202015Z 21010KT 17/M09 A3015 RMK A01 T01681086  RH  017%=      5-min Rain = 0
KHO1 202016Z 21011KT 17/M09 A3015 RMK A01 T01671087  RH  017%=      5-min Rain = 0
KHO1 202017Z 23011KT 17/M09 A3015 RMK A01 T01671087  RH  017%=      5-min Rain = 0
KHO1 202018Z 24011KT 17/M09 A3014 RMK A01 T01671088  RH  017%=      5-min Rain = 0
KHO1 202019Z 23011KT 17/M09 A3014 RMK A01 T01661089  RH  017%=      5-min Rain = 0
KHO1 202020Z 22012KT 17/M09 A3014 RMK A01 T01651089  RH  017%=      5-min Rain = 0
KHO1 202021Z 21009KT 16/M09 A3014 RMK A01 T01641091  RH  017%=      5-min Rain = 0
KHO1 202022Z 24007KT 16/M09 A3014 RMK A01 T01641088  RH  017%=      5-min Rain = 0
KHO1 202023Z 24009KT 17/M09 A3014 RMK A01 T01671086  RH  017%=      5-min Rain = 0
KHO1 202024Z 24010KT 17/M09 A3014 RMK A01 T01671088  RH  017%=      5-min Rain = 0
KHO1 202025Z 24009KT 17/M09 A3014 RMK A01 T01671089  RH  016%=      5-min Rain = 0
KHO1 202026Z 22010KT 17/M09 A3014 RMK A01 T01681087  RH  017%=      5-min Rain = 0
KHO1 202027Z 20012KT 17/M09 A3014 RMK A01 T01671094  RH  016%=      5-min Rain = 0
KHO1 202028Z 22011KT 17/M09 A3014 RMK A01 T01671090  RH  016%=      5-min Rain = 0
KHO1 202029Z 22010KT 17/M09 A3014 RMK A01 T01661092  RH  016%=      5-min Rain = 0
KHO1 202030Z 22008KT 17/M09 A3014 RMK A01 T01661092  RH  016%=      5-min Rain = 0
KHO1 202031Z 23009G14KT 17/M09 A3014 RMK A01 T01661090  RH  016%=      5-min Rain = 0
KHO1 202032Z 23011KT 17/M10 A3014 RMK A01 T01671095  RH  016%=      5-min Rain = 0
KHO1 202033Z 24012KT 17/M10 A3014 RMK A01 T01671099  RH  015%=      5-min Rain = 0
KHO1 202034Z 25010KT 17/M10 A3014 RMK A01 T01671096  RH  016%=      5-min Rain = 0
KHO1 202035Z 24011KT 17/M10 A3013 RMK A01 T01681098  RH  015%=      5-min Rain = 0
KHO1 202036Z 24011KT 17/M10 A3013 RMK A01 T01671101  RH  015%=      5-min Rain = 0
KHO1 202037Z 23009KT 17/M10 A3013 RMK A01 T01681100  RH  015%=      5-min Rain = 0
KHO1 202038Z 22010KT 17/M10 A3013 RMK A01 T01671099  RH  015%=      5-min Rain = 0
KHO1 202039Z 21011KT 17/M10 A3013 RMK A01 T01691096  RH  015%=      5-min Rain = 0
KHO1 202040Z 22010KT 17/M10 A3013 RMK A01 T01691102  RH  015%=      5-min Rain = 0
KHO1 202041Z 24009KT 17/M10 A3013 RMK A01 T01681102  RH  015%=      5-min Rain = 0
KHO1 202042Z 25009KT 17/M10 A3013 RMK A01 T01691101  RH  015%=      5-min Rain = 0
KHO1 202043Z 24007KT 17/M09 A3013 RMK A01 T01721094  RH  015%=      5-min Rain = 0
KHO1 202044Z 22007KT 18/M10 A3013 RMK A01 T01761097  RH  015%=      5-min Rain = 0
KHO1 202045Z 23010KT 17/M10 A3013 RMK A01 T01741102  RH  014%=      5-min Rain = 0
KHO1 202046Z 25011KT 18/M10 A3013 RMK A01 T01751102  RH  014%=      5-min Rain = 0
KHO1 202047Z 26010KT 18/M10 A3013 RMK A01 T01751103  RH  014%=      5-min Rain = 0
KHO1 202048Z 25013KT 18/M10 A3012 RMK A01 T01751103  RH  014%=      5-min Rain = 0
KHO1 202049Z 24011KT 18/M10 A3012 RMK A01 T01751103  RH  014%=      5-min Rain = 0
KHO1 202050Z 23009KT 17/M11 A3012 RMK A01 T01731105  RH  014%=      5-min Rain = 0
KHO1 202051Z 23010KT 17/M10 A3012 RMK A01 T01741102  RH  014%=      5-min Rain = 0
KHO1 202052Z 23012KT 18/M10 A3012 RMK A01 T01751104  RH  014%=      5-min Rain = 0
KHO1 202053Z 25016KT 17/M10 A3012 RMK A01 T01741104  RH  014%=      5-min Rain = 0
KHO1 202054Z 24014KT 17/M10 A3012 RMK A01 T01721104  RH  014%=      5-min Rain = 0
KHO1 202055Z 24012KT 17/M11 A3012 RMK A01 T01721105  RH  014%=      5-min Rain = 0
KHO1 202056Z 24011KT 17/M10 A3012 RMK A01 T01731104  RH  014%=      5-min Rain = 0
KHO1 202057Z 25011KT 17/M11 A3012 RMK A01 T01731105  RH  014%=      5-min Rain = 0
KHO1 202058Z 25011KT 17/M10 A3012 RMK A01 T01731104  RH  014%=      5-min Rain = 0
KHO1 202059Z 24009KT 17/M10 A3012 RMK A01 T01741101  RH  014%=      5-min Rain = 0
KHO1 202100Z 23012KT 18/M10 A3012 RMK A01 T01781100  RH  014%=      5-min Rain = 0
KHO1 202101Z 23013KT 18/M10 A3012 RMK A01 T01761104  RH  014%=      5-min Rain = 0
KHO1 202102Z 24013KT 18/M10 A3012 RMK A01 T01761104  RH  014%=      5-min Rain = 0
KHO1 202103Z 23011KT 18/M10 A3012 RMK A01 T01751103  RH  014%=      5-min Rain = 0
KHO1 202104Z 23011KT 18/M10 A3012 RMK A01 T01751104  RH  014%=      5-min Rain = 0
KHO1 202105Z 23011KT 17/M10 A3012 RMK A01 T01741104  RH  014%=      5-min Rain = 0
KHO1 202106Z 23010KT 17/M11 A3012 RMK A01 T01741105  RH  014%=      5-min Rain = 0
KHO1 202107Z 23010KT 17/M10 A3012 RMK A01 T01741104  RH  014%=      5-min Rain = 0
KHO1 202108Z 23012KT 18/M10 A3012 RMK A01 T01751103  RH  014%=      5-min Rain = 0
KHO1 202109Z 23013KT 18/M11 A3012 RMK A01 T01751106  RH  014%=      5-min Rain = 0
KHO1 202110Z 22011KT 17/M11 A3012 RMK A01 T01741105  RH  014%=      5-min Rain = 0
KHO1 202111Z 23011KT 18/M10 A3011 RMK A01 T01761104  RH  014%=      5-min Rain = 0
KHO1 202112Z 24009KT 18/M10 A3011 RMK A01 T01771100  RH  014%=      5-min Rain = 0
KHO1 202113Z 24011KT 18/M10 A3011 RMK A01 T01801099  RH  014%=      5-min Rain = 0
KHO1 202114Z 22011KT 18/M10 A3011 RMK A01 T01801103  RH  014%=      5-min Rain = 0
KHO1 202115Z 23011KT 18/M10 A3011 RMK A01 T01781103  RH  014%=      5-min Rain = 0
KHO1 202116Z 26013KT 18/M10 A3011 RMK A01 T01791102  RH  014%=      5-min Rain = 0
KHO1 202117Z 26013KT 18/M10 A3011 RMK A01 T01781103  RH  014%=      5-min Rain = 0
KHO1 202118Z 25013KT 18/M10 A3011 RMK A01 T01771103  RH  014%=      5-min Rain = 0
KHO1 202119Z 24013KT 18/M10 A3011 RMK A01 T01761104  RH  014%=      5-min Rain = 0
KHO1 202120Z 25012KT 17/M11 A3011 RMK A01 T01731106  RH  014%=      5-min Rain = 0
KHO1 202121Z 23013KT 17/M10 A3011 RMK A01 T01731104  RH  014%=      5-min Rain = 0
KHO1 202122Z 24013KT 17/M11 A3011 RMK A01 T01741105  RH  014%=      5-min Rain = 0
KHO1 202123Z 23012KT 18/M10 A3011 RMK A01 T01751103  RH  014%=      5-min Rain = 0
KHO1 202124Z 23012KT 18/M10 A3011 RMK A01 T01751104  RH  014%=      5-min Rain = 0
KHO1 202125Z 23012KT 17/M11 A3011 RMK A01 T01741107  RH  014%=      5-min Rain = 0
KHO1 202126Z 23012KT 17/M11 A3011 RMK A01 T01731107  RH  014%=      5-min Rain = 0
KHO1 202127Z 22012KT 17/M11 A3011 RMK A01 T01731105  RH  014%=      5-min Rain = 0
KHO1 202128Z 23014KT 17/M11 A3011 RMK A01 T01721108  RH  014%=      5-min Rain = 0
KHO1 202129Z 23011KT 17/M11 A3011 RMK A01 T01711105  RH  014%=      5-min Rain = 0
KHO1 202130Z 23012KT 17/M11 A3011 RMK A01 T01711105  RH  014%=      5-min Rain = 0
KHO1 202131Z 24010KT 17/M10 A3011 RMK A01 T01711104  RH  014%=      5-min Rain = 0
KHO1 202132Z 23010KT 17/M10 A3011 RMK A01 T01711103  RH  014%=      5-min Rain = 0
KHO1 202133Z 22012KT 17/M11 A3011 RMK A01 T01711105  RH  014%=      5-min Rain = 0
KHO1 202134Z 23011KT 17/M11 A3011 RMK A01 T01701107  RH  014%=      5-min Rain = 0
KHO1 202135Z 24010KT 17/M11 A3011 RMK A01 T01701105  RH  014%=      5-min Rain = 0
KHO1 202136Z 24011KT 17/M11 A3011 RMK A01 T01701106  RH  014%=      5-min Rain = 0
KHO1 202137Z 24011KT 17/M10 A3011 RMK A01 T01711103  RH  014%=      5-min Rain = 0
KHO1 202138Z 25010KT 17/M10 A3011 RMK A01 T01741100  RH  014%=      5-min Rain = 0
KHO1 202139Z 24010KT 18/M10 A3011 RMK A01 T01781100  RH  014%=      5-min Rain = 0
KHO1 202140Z 24010KT 18/M10 A3011 RMK A01 T01791101  RH  014%=      5-min Rain = 0
KHO1 202141Z 25012KT 18/M10 A3011 RMK A01 T01801101  RH  014%=      5-min Rain = 0
KHO1 202142Z 24010KT 18/M10 A3011 RMK A01 T01801103  RH  014%=      5-min Rain = 0
KHO1 202143Z 23012KT 18/M10 A3011 RMK A01 T01801104  RH  013%=      5-min Rain = 0
KHO1 202144Z 22011KT 18/M11 A3011 RMK A01 T01791105  RH  013%=      5-min Rain = 0
KHO1 202145Z 23011KT 18/M10 A3011 RMK A01 T01801102  RH  014%=      5-min Rain = 0
KHO1 202146Z 22011KT 18/M10 A3011 RMK A01 T01801104  RH  013%=      5-min Rain = 0
KHO1 202147Z 23010KT 18/M11 A3011 RMK A01 T01791106  RH  013%=      5-min Rain = 0
KHO1 202148Z 24010G15KT 18/M10 A3011 RMK A01 T01791102  RH  014%=      5-min Rain = 0
KHO1 202149Z 24013KT 18/M10 A3011 RMK A01 T01811104  RH  013%=      5-min Rain = 0
KHO1 202150Z 24011KT 18/M10 A3011 RMK A01 T01801103  RH  013%=      5-min Rain = 0
KHO1 202151Z 24012KT 18/M10 A3011 RMK A01 T01811103  RH  013%=      5-min Rain = 0
KHO1 202152Z 23010KT 18/M10 A3011 RMK A01 T01811104  RH  013%=      5-min Rain = 0
KHO1 202153Z 24012KT 18/M10 A3011 RMK A01 T01821101  RH  014%=      5-min Rain = 0
KHO1 202154Z 25012KT 18/M10 A3011 RMK A01 T01831102  RH  013%=      5-min Rain = 0
KHO1 202155Z 24012KT 18/M10 A3011 RMK A01 T01831103  RH  013%=      5-min Rain = 0
KHO1 202156Z 24010KT 18/M10 A3011 RMK A01 T01821103  RH  013%=      5-min Rain = 0
KHO1 202157Z 22009KT 18/M10 A3011 RMK A01 T01841102  RH  013%=      5-min Rain = 0
KHO1 202158Z 23008KT 18/M10 A3011 RMK A01 T01841104  RH  013%=      5-min Rain = 0
KHO1 202159Z 23008KT 18/M10 A3011 RMK A01 T01831103  RH  013%=      5-min Rain = 0
KHO1 202200Z 22008KT 19/M10 A3011 RMK A01 T01871098  RH  014%=      5-min Rain = 0
KHO1 202201Z 23009KT 19/M10 A3012 RMK A01 T01891100  RH  013%=      5-min Rain = 0
KHO1 202202Z 22008KT 19/M10 A3012 RMK A01 T01891101  RH  013%=      5-min Rain = 0
KHO1 202203Z 22011KT 19/M10 A3012 RMK A01 T01881103  RH  013%=      5-min Rain = 0
KHO1 202204Z 23012KT 19/M11 A3012 RMK A01 T01851106  RH  013%=      5-min Rain = 0
KHO1 202205Z 25010KT 18/M11 A3012 RMK A01 T01821106  RH  013%=      5-min Rain = 0
KHO1 202206Z 25009KT 18/M11 A3012 RMK A01 T01811105  RH  013%=      5-min Rain = 0
KHO1 202207Z 24012KT 18/M10 A3012 RMK A01 T01801104  RH  013%=      5-min Rain = 0
KHO1 202208Z 23011KT 18/M11 A3012 RMK A01 T01791105  RH  013%=      5-min Rain = 0
KHO1 202209Z 24011KT 18/M10 A3012 RMK A01 T01791103  RH  014%=      5-min Rain = 0
KHO1 202210Z 24011KT 18/M11 A3012 RMK A01 T01781105  RH  013%=      5-min Rain = 0
KHO1 202211Z 23009KT 18/M10 A3011 RMK A01 T01781104  RH  014%=      5-min Rain = 0
KHO1 202212Z 23008KT 18/M10 A3011 RMK A01 T01791103  RH  014%=      5-min Rain = 0
KHO1 202213Z 22011KT 18/M11 A3011 RMK A01 T01791105  RH  013%=      5-min Rain = 0
KHO1 202214Z 24013KT 18/M10 A3011 RMK A01 T01801103  RH  014%=      5-min Rain = 0
KHO1 202215Z 24011KT 18/M11 A3011 RMK A01 T01791105  RH  013%=      5-min Rain = 0
KHO1 202216Z 24012KT 18/M11 A3011 RMK A01 T01781106  RH  013%=      5-min Rain = 0
KHO1 202217Z 24011KT 18/M11 A3011 RMK A01 T01771106  RH  013%=      5-min Rain = 0
KHO1 202218Z 24010KT 18/M11 A3011 RMK A01 T01761106  RH  014%=      5-min Rain = 0
KHO1 202219Z 24010KT 18/M11 A3011 RMK A01 T01751106  RH  014%=      5-min Rain = 0
KHO1 202220Z 24009KT 17/M11 A3011 RMK A01 T01741105  RH  014%=      5-min Rain = 0
KHO1 202221Z 25009KT 17/M11 A3011 RMK A01 T01731105  RH  014%=      5-min Rain = 0
KHO1 202222Z 23008KT 17/M11 A3011 RMK A01 T01721105  RH  014%=      5-min Rain = 0
KHO1 202223Z 22009KT 17/M10 A3011 RMK A01 T01721103  RH  014%=      5-min Rain = 0
KHO1 202224Z 22008KT 17/M10 A3011 RMK A01 T01721102  RH  014%=      5-min Rain = 0
KHO1 202225Z 22007KT 17/M10 A3011 RMK A01 T01711100  RH  015%=      5-min Rain = 0
KHO1 202226Z 21010KT 17/M10 A3011 RMK A01 T01711100  RH  015%=      5-min Rain = 0
KHO1 202227Z 19009KT 17/M10 A3011 RMK A01 T01711099  RH  015%=      5-min Rain = 0
KHO1 202228Z 20008KT 17/M10 A3011 RMK A01 T01711098  RH  015%=      5-min Rain = 0
KHO1 202229Z 20010KT 17/M10 A3011 RMK A01 T01721099  RH  015%=      5-min Rain = 0
KHO1 202230Z 20009KT 17/M10 A3011 RMK A01 T01721099  RH  015%=      5-min Rain = 0
KHO1 202231Z 20010KT 17/M10 A3011 RMK A01 T01721100  RH  015%=      5-min Rain = 0
KHO1 202232Z 20011KT 17/M10 A3011 RMK A01 T01721099  RH  015%=      5-min Rain = 0
KHO1 202233Z 18009KT 17/M10 A3011 RMK A01 T01721099  RH  015%=      5-min Rain = 0
KHO1 202234Z 19009KT 17/M10 A3011 RMK A01 T01721098  RH  015%=      5-min Rain = 0
KHO1 202235Z 19009KT 17/M10 A3011 RMK A01 T01721098  RH  015%=      5-min Rain = 0
KHO1 202236Z 19009KT 17/M10 A3011 RMK A01 T01721099  RH  015%=      5-min Rain = 0
KHO1 202237Z 19011KT 17/M10 A3011 RMK A01 T01711101  RH  015%=      5-min Rain = 0
KHO1 202238Z 19008KT 17/M10 A3011 RMK A01 T01711100  RH  015%=      5-min Rain = 0
KHO1 202239Z 19009KT 17/M10 A3011 RMK A01 T01711101  RH  015%=      5-min Rain = 0
KHO1 202240Z 19007KT 17/M10 A3011 RMK A01 T01711099  RH  015%=      5-min Rain = 0
KHO1 202241Z 20007KT 17/M10 A3011 RMK A01 T01721099  RH  015%=      5-min Rain = 0
KHO1 202242Z 20008KT 17/M10 A3011 RMK A01 T01731100  RH  015%=      5-min Rain = 0
KHO1 202243Z 19006KT 17/M10 A3011 RMK A01 T01731098  RH  015%=      5-min Rain = 0
KHO1 202244Z 19007KT 17/M10 A3011 RMK A01 T01741098  RH  015%=      5-min Rain = 0
KHO1 202245Z 19007KT 18/M10 A3011 RMK A01 T01751100  RH  014%=      5-min Rain = 0
KHO1 202246Z 18006KT 17/M10 A3011 RMK A01 T01741099  RH  015%=      5-min Rain = 0
KHO1 202247Z 18009KT 17/M10 A3011 RMK A01 T01731101  RH  014%=      5-min Rain = 0
KHO1 202248Z 18008KT 17/M10 A3011 RMK A01 T01721100  RH  015%=      5-min Rain = 0
KHO1 202249Z 18008KT 17/M10 A3011 RMK A01 T01721101  RH  015%=      5-min Rain = 0
KHO1 202250Z 18007KT 17/M10 A3011 RMK A01 T01711100  RH  015%=      5-min Rain = 0
KHO1 202251Z 21008KT 17/M10 A3011 RMK A01 T01721101  RH  015%=      5-min Rain = 0
KHO1 202252Z 21007KT 17/M10 A301 RMK A01 T01721101  RH  014%=      5-min Rain = 0
KHO1 202253Z 22007KT 17/M10 A301 RMK A01 T01731104  RH  014%=      5-min Rain = 0
KHO1 202254Z 23007KT 17/M10 A301 RMK A01 T01731103  RH  014%=      5-min Rain = 0
KHO1 202255Z 23007KT 17/M10 A301 RMK A01 T01721103  RH  014%=      5-min Rain = 0
KHO1 202256Z 22007KT 17/M11 A301 RMK A01 T01721105  RH  014%=      5-min Rain = 0
KHO1 202257Z 21006KT 17/M10 A301 RMK A01 T01721103  RH  014%=      5-min Rain = 0
KHO1 202258Z 21009KT 17/M10 A301 RMK A01 T01711103  RH  014%=      5-min Rain = 0
KHO1 202259Z 21010KT 17/M10 A301 RMK A01 T01711102  RH  014%=      5-min Rain = 0
KHO1 202300Z 21008KT 17/M10 A301 RMK A01 T01711102  RH  014%=      5-min Rain = 0
KHO1 202301Z 22006KT 17/M10 A301 RMK A01 T01711101  RH  015%=      5-min Rain = 0
KHO1 202302Z 21005KT 17/M10 A301 RMK A01 T01701100  RH  015%=      5-min Rain = 0
KHO1 202303Z 22006KT 17/M10 A301 RMK A01 T01701100  RH  015%=      5-min Rain = 0
KHO1 202304Z 22004KT 17/M10 A3011 RMK A01 T01701101  RH  015%=      5-min Rain = 0
KHO1 202305Z 22004KT 17/M10 A3011 RMK A01 T01691100  RH  015%=      5-min Rain = 0
KHO1 202306Z 22005KT 17/M10 A301 RMK A01 T01691100  RH  015%=      5-min Rain = 0
KHO1 202307Z 22005KT 17/M10 A301 RMK A01 T01691099  RH  015%=      5-min Rain = 0
KHO1 202308Z 22006KT 17/M10 A301 RMK A01 T01691100  RH  015%=      5-min Rain = 0
KHO1 202309Z 22005KT 17/M10 A301 RMK A01 T01691099  RH  015%=      5-min Rain = 0
KHO1 202310Z 21005KT 17/M10 A301 RMK A01 T01691098  RH  015%=      5-min Rain = 0
KHO1 202311Z 21005KT 17/M10 A301 RMK A01 T01681098  RH  015%=      5-min Rain = 0
KHO1 202312Z 21008KT 17/M10 A301 RMK A01 T01681099  RH  015%=      5-min Rain = 0
KHO1 202313Z 21009KT 17/M10 A301 RMK A01 T01671099  RH  015%=      5-min Rain = 0
KHO1 202314Z 20008KT 17/M10 A301 RMK A01 T01661100  RH  015%=      5-min Rain = 0
KHO1 202315Z 20006KT 17/M09 A301 RMK A01 T01651094  RH  016%=      5-min Rain = 0
KHO1 202316Z 20007KT 16/M09 A301 RMK A01 T01641094  RH  016%=      5-min Rain = 0
KHO1 202317Z 19007KT 16/M10 A301 RMK A01 T01631095  RH  016%=      5-min Rain = 0
KHO1 202318Z 19009KT 16/M10 A301 RMK A01 T01621096  RH  016%=      5-min Rain = 0
KHO1 202319Z 19009KT 16/M10 A301 RMK A01 T01611096  RH  016%=      5-min Rain = 0
KHO1 202320Z 19009KT 16/M10 A301 RMK A01 T01601097  RH  016%=      5-min Rain = 0
KHO1 202321Z 19008KT 16/M10 A301 RMK A01 T01601096  RH  016%=      5-min Rain = 0
KHO1 202322Z 19008KT 16/M10 A301 RMK A01 T01591096  RH  016%=      5-min Rain = 0
KHO1 202323Z 19009KT 16/M10 A301 RMK A01 T01591097  RH  016%=      5-min Rain = 0
KHO1 202324Z 19008KT 16/M10 A301 RMK A01 T01591095  RH  017%=      5-min Rain = 0
KHO1 202325Z 19008KT 16/M10 A301 RMK A01 T01581095  RH  017%=      5-min Rain = 0
KHO1 202326Z 19007KT 16/M09 A301 RMK A01 T01581094  RH  017%=      5-min Rain = 0
KHO1 202327Z 19007KT 16/M09 A301 RMK A01 T01571094  RH  017%=      5-min Rain = 0
KHO1 202328Z 19007KT 16/M09 A301 RMK A01 T01571094  RH  017%=      5-min Rain = 0
KHO1 202329Z 19008KT 16/M09 A301 RMK A01 T01561093  RH  017%=      5-min Rain = 0
KHO1 202330Z 19008KT 16/M09 A301 RMK A01 T01561093  RH  017%=      5-min Rain = 0
KHO1 202331Z 19009KT 16/M09 A301 RMK A01 T01561094  RH  017%=      5-min Rain = 0
KHO1 202332Z 19008KT 16/M09 A301 RMK A01 T01561093  RH  017%=      5-min Rain = 0
KHO1 202333Z 19010KT 16/M09 A301 RMK A01 T01551092  RH  017%=      5-min Rain = 0
KHO1 202334Z 20010KT 16/M09 A301 RMK A01 T01551092  RH  017%=      5-min Rain = 0
KHO1 202335Z 19010KT 15/M09 A301 RMK A01 T01541092  RH  017%=      5-min Rain = 0
KHO1 202336Z 20010KT 15/M09 A301 RMK A01 T01541092  RH  017%=      5-min Rain = 0
KHO1 202337Z 20011KT 15/M09 A301 RMK A01 T01541091  RH  018%=      5-min Rain = 0
KHO1 202338Z 19009KT 15/M09 A301 RMK A01 T01531090  RH  018%=      5-min Rain = 0
KHO1 202339Z 20010KT 15/M09 A301 RMK A01 T01521089  RH  018%=      5-min Rain = 0
KHO1 202340Z 20009KT 15/M09 A301 RMK A01 T01511088  RH  018%=      5-min Rain = 0
KHO1 202341Z 19009KT 15/M09 A301 RMK A01 T01501088  RH  019%=      5-min Rain = 0
KHO1 202342Z 19008KT 15/M09 A301 RMK A01 T01491087  RH  019%=      5-min Rain = 0
KHO1 202343Z 19008KT 15/M09 A301 RMK A01 T01481087  RH  019%=      5-min Rain = 0
KHO1 202344Z 20008KT 15/M09 A301 RMK A01 T01471086  RH  019%=      5-min Rain = 0
KHO1 202345Z 20008KT 15/M09 A301 RMK A01 T01461085  RH  019%=      5-min Rain = 0
KHO1 202346Z 20008KT 15/M09 A301 RMK A01 T01451085  RH  019%=      5-min Rain = 0
KHO1 202347Z 20008KT 15/M09 A301 RMK A01 T01451085  RH  020%=      5-min Rain = 0
KHO1 202348Z 20008KT 15/M09 A301 RMK A01 T01451085  RH  020%=      5-min Rain = 0
KHO1 202349Z 20007KT 14/M08 A301 RMK A01 T01441084  RH  020%=      5-min Rain = 0
KHO1 202350Z 19008KT 14/M08 A301 RMK A01 T01431084  RH  020%=      5-min Rain = 0
KHO1 202351Z 19007KT 14/M08 A301 RMK A01 T01421084  RH  020%=      5-min Rain = 0
KHO1 202352Z 19007KT 14/M08 A301 RMK A01 T01411084  RH  020%=      5-min Rain = 0
KHO1 202353Z 19007KT 14/M08 A301 RMK A01 T01411084  RH  020%=      5-min Rain = 0
KHO1 202354Z 19007KT 14/M08 A301 RMK A01 T01401083  RH  020%=      5-min Rain = 0
KHO1 202355Z 19007KT 14/M08 A301 RMK A01 T01391083  RH  021%=      5-min Rain = 0
KHO1 202356Z 19007KT 14/M08 A301 RMK A01 T01381083  RH  021%=      5-min Rain = 0
KHO1 202357Z 20007KT 14/M08 A301 RMK A01 T01371082  RH  021%=      5-min Rain = 0
KHO1 202358Z 20007KT 14/M08 A301 RMK A01 T01361082  RH  021%=      5-min Rain = 0
KHO1 202359Z 20007KT 14/M08 A301 RMK A01 T01351082  RH  021%=      5-min Rain = 0
KHO1 210000Z 20007KT 13/M08 A301 RMK A01 T01331081  RH  022%=      5-min Rain = 0
KHO1 210001Z 20007KT 13/M08 A301 RMK A01 T01321081  RH  022%=      5-min Rain = 0
KHO1 210002Z 20007KT 13/M08 A301 RMK A01 T01311081  RH  022%=      5-min Rain = 0
KHO1 210003Z 20007KT 13/M08 A301 RMK A01 T01301080  RH  022%=      5-min Rain = 0
KHO1 210004Z 20007KT 13/M08 A301 RMK A01 T01291080  RH  022%=      5-min Rain = 0
KHO1 210005Z 20007KT 13/M08 A301 RMK A01 T01291080  RH  023%=      5-min Rain = 0
KHO1 210006Z 20007KT 13/M08 A301 RMK A01 T01281080  RH  023%=      5-min Rain = 0
KHO1 210007Z 20007KT 13/M08 A301 RMK A01 T01271080  RH  023%=      5-min Rain = 0
KHO1 210008Z 20007KT 13/M08 A301 RMK A01 T01271080  RH  023%=      5-min Rain = 0
KHO1 210009Z 20007KT 13/M08 A301 RMK A01 T01261080  RH  023%=      5-min Rain = 0
KHO1 210010Z 20007KT 13/M08 A301 RMK A01 T01261080  RH  023%=      5-min Rain = 0
KHO1 210011Z 20007KT 13/M08 A301 RMK A01 T01251080  RH  023%=      5-min Rain = 0
KHO1 210012Z 20007KT 13/M08 A301 RMK A01 T01251080  RH  023%=      5-min Rain = 0
KHO1 210013Z 20008KT 13/M08 A301 RMK A01 T01251080  RH  023%=      5-min Rain = 0
KHO1 210014Z 20007KT 12/M08 A301 RMK A01 T01241080  RH  023%=      5-min Rain = 0
KHO1 210015Z 20007KT 12/M08 A301 RMK A01 T01231080  RH  023%=      5-min Rain = 0
KHO1 210016Z 20007KT 12/M08 A301 RMK A01 T01221080  RH  024%=      5-min Rain = 0
KHO1 210017Z 20007KT 12/M08 A301 RMK A01 T01211080  RH  024%=      5-min Rain = 0
KHO1 210018Z 20007KT 12/M08 A301 RMK A01 T01201080  RH  024%=      5-min Rain = 0
KHO1 210019Z 20006KT 12/M08 A301 RMK A01 T01191080  RH  024%=      5-min Rain = 0
KHO1 210020Z 20007KT 12/M08 A301 RMK A01 T01181080  RH  024%=      5-min Rain = 0
KHO1 210021Z 19006KT 12/M08 A301 RMK A01 T01171080  RH  024%=      5-min Rain = 0
KHO1 210022Z 19006KT 12/M08 A301 RMK A01 T01161080  RH  024%=      5-min Rain = 0
KHO1 210023Z 19006KT 12/M08 A301 RMK A01 T01161080  RH  025%=      5-min Rain = 0
KHO1 210024Z 19006KT 12/M08 A301 RMK A01 T01151080  RH  025%=      5-min Rain = 0
KHO1 210025Z 19006KT 11/M08 A301 RMK A01 T01141080  RH  025%=      5-min Rain = 0
KHO1 210026Z 19006KT 11/M08 A301 RMK A01 T01131080  RH  025%=      5-min Rain = 0
KHO1 210027Z 19006KT 11/M08 A301 RMK A01 T01121081  RH  025%=      5-min Rain = 0
KHO1 210028Z 19006KT 11/M08 A301 RMK A01 T01121081  RH  025%=      5-min Rain = 0
KHO1 210029Z 19006KT 11/M08 A301 RMK A01 T01111081  RH  025%=      5-min Rain = 0
KHO1 210030Z 19005KT 11/M08 A301 RMK A01 T01121081  RH  025%=      5-min Rain = 0
KHO1 210031Z 19005KT 11/M08 A301 RMK A01 T01121081  RH  025%=      5-min Rain = 0
KHO1 210032Z 19005KT 11/M08 A301 RMK A01 T01121081  RH  025%=      5-min Rain = 0
KHO1 210033Z 19005KT 11/M08 A301 RMK A01 T01121081  RH  025%=      5-min Rain = 0
KHO1 210034Z 19004KT 11/M08 A301 RMK A01 T01121081  RH  025%=      5-min Rain = 0
KHO1 210035Z 20005KT 11/M08 A301 RMK A01 T01121081  RH  025%=      5-min Rain = 0
KHO1 210036Z 19005KT 11/M08 A301 RMK A01 T01121081  RH  025%=      5-min Rain = 0
KHO1 210037Z 19005KT 11/M08 A301 RMK A01 T01121081  RH  025%=      5-min Rain = 0
KHO1 210038Z 19005KT 11/M08 A301 RMK A01 T01111081  RH  025%=      5-min Rain = 0
KHO1 210039Z 19005KT 11/M08 A301 RMK A01 T01111081  RH  025%=      5-min Rain = 0
KHO1 210040Z 19005KT 11/M08 A301 RMK A01 T01111082  RH  025%=      5-min Rain = 0
KHO1 210041Z 20004KT 11/M08 A3009 RMK A01 T01111081  RH  025%=      5-min Rain = 0
KHO1 210042Z 20004KT 11/M08 A3009 RMK A01 T01111081  RH  025%=      5-min Rain = 0
KHO1 210043Z 19005KT 11/M08 A3009 RMK A01 T01101082  RH  025%=      5-min Rain = 0
KHO1 210044Z 19005KT 11/M08 A3009 RMK A01 T01101081  RH  025%=      5-min Rain = 0
KHO1 210045Z 19005KT 11/M08 A3009 RMK A01 T01101081  RH  025%=      5-min Rain = 0
KHO1 210046Z 18006KT 11/M08 A3009 RMK A01 T01091081  RH  026%=      5-min Rain = 0
KHO1 210047Z 18006KT 11/M08 A3009 RMK A01 T01101080  RH  026%=      5-min Rain = 0
KHO1 210048Z 18006KT 11/M08 A3009 RMK A01 T01101079  RH  026%=      5-min Rain = 0
KHO1 210049Z 18005KT 11/M08 A3009 RMK A01 T01101079  RH  026%=      5-min Rain = 0
KHO1 210050Z 18005KT 11/M08 A3009 RMK A01 T01101080  RH  025%=      5-min Rain = 0
KHO1 210051Z 18005KT 11/M08 A3009 RMK A01 T01111080  RH  025%=      5-min Rain = 0
KHO1 210052Z 18005KT 11/M08 A3009 RMK A01 T01101080  RH  025%=      5-min Rain = 0
KHO1 210053Z 18005KT 11/M08 A3009 RMK A01 T01101080  RH  025%=      5-min Rain = 0
KHO1 210054Z 18005KT 11/M08 A3009 RMK A01 T01101080  RH  026%=      5-min Rain = 0
KHO1 210055Z 18005KT 11/M08 A3009 RMK A01 T01081080  RH  026%=      5-min Rain = 0
KHO1 210056Z 18005KT 11/M08 A3009 RMK A01 T01081080  RH  026%=      5-min Rain = 0
KHO1 210057Z 18005KT 11/M08 A3009 RMK A01 T01071080  RH  026%=      5-min Rain = 0
KHO1 210058Z 18006KT 11/M08 A3009 RMK A01 T01071080  RH  026%=      5-min Rain = 0
KHO1 210059Z 18006KT 11/M08 A3009 RMK A01 T01071080  RH  026%=      5-min Rain = 0
KHO1 210100Z 18006KT 11/M08 A3009 RMK A01 T01071080  RH  026%=      5-min Rain = 0
KHO1 210101Z 18006KT 11/M08 A3009 RMK A01 T01061080  RH  026%=      5-min Rain = 0
KHO1 210102Z 18006KT 11/M08 A3009 RMK A01 T01051079  RH  027%=      5-min Rain = 0
KHO1 210103Z 17006KT 11/M08 A3009 RMK A01 T01051080  RH  027%=      5-min Rain = 0
KHO1 210104Z 17007KT 11/M08 A3009 RMK A01 T01061080  RH  026%=      5-min Rain = 0
KHO1 210105Z 17006KT 11/M08 A3009 RMK A01 T01061080  RH  026%=      5-min Rain = 0
KHO1 210106Z 18007KT 11/M08 A3009 RMK A01 T01071080  RH  026%=      5-min Rain = 0
KHO1 210107Z 17007KT 11/M08 A3009 RMK A01 T01091081  RH  026%=      5-min Rain = 0
KHO1 210108Z 17007KT 11/M08 A3009 RMK A01 T01111082  RH  025%=      5-min Rain = 0
KHO1 210109Z 17006KT 11/M08 A3009 RMK A01 T01111082  RH  025%=      5-min Rain = 0
KHO1 210110Z 17006KT 11/M08 A3009 RMK A01 T01111082  RH  025%=      5-min Rain = 0
KHO1 210111Z 17006KT 11/M08 A3009 RMK A01 T01111082  RH  025%=      5-min Rain = 0
KHO1 210112Z 17006KT 11/M08 A3009 RMK A01 T01111082  RH  025%=      5-min Rain = 0
KHO1 210113Z 17006KT 11/M08 A3009 RMK A01 T01111081  RH  025%=      5-min Rain = 0
KHO1 210114Z 18005KT 11/M08 A3009 RMK A01 T01111081  RH  025%=      5-min Rain = 0
KHO1 210115Z 18005KT 11/M08 A3009 RMK A01 T01091080  RH  026%=      5-min Rain = 0
KHO1 210116Z 18005KT 11/M08 A3009 RMK A01 T01071080  RH  026%=      5-min Rain = 0
KHO1 210117Z 18005KT 11/M08 A3009 RMK A01 T01051079  RH  027%=      5-min Rain = 0
KHO1 210118Z 18005KT 10/M08 A3009 RMK A01 T01031079  RH  027%=      5-min Rain = 0
KHO1 210119Z 18005KT 10/M08 A3009 RMK A01 T01021079  RH  027%=      5-min Rain = 0
KHO1 210120Z 18005KT 10/M08 A3009 RMK A01 T01011079  RH  027%=      5-min Rain = 0
KHO1 210121Z 18005KT 10/M08 A3009 RMK A01 T01011079  RH  027%=      5-min Rain = 0
KHO1 210122Z 18005KT 10/M08 A3009 RMK A01 T01011079  RH  027%=      5-min Rain = 0
KHO1 210123Z 18005KT 10/M08 A3009 RMK A01 T01001079  RH  027%=      5-min Rain = 0
KHO1 210124Z 18005KT 10/M08 A3009 RMK A01 T01001079  RH  027%=      5-min Rain = 0
KHO1 210125Z 18005KT 10/M08 A3009 RMK A01 T01001079  RH  028%=      5-min Rain = 0
KHO1 210126Z 18005KT 10/M08 A3009 RMK A01 T01001079  RH  028%=      5-min Rain = 0
KHO1 210127Z 18004KT 10/M08 A3009 RMK A01 T00991079  RH  028%=      5-min Rain = 0
KHO1 210128Z 17004KT 10/M08 A3009 RMK A01 T01001079  RH  028%=      5-min Rain = 0
KHO1 210129Z 17005KT 10/M08 A3009 RMK A01 T01011079  RH  028%=      5-min Rain = 0
KHO1 210130Z 17005KT 10/M08 A3008 RMK A01 T01011079  RH  027%=      5-min Rain = 0
KHO1 210131Z 17005KT 10/M08 A3008 RMK A01 T01021078  RH  027%=      5-min Rain = 0
KHO1 210132Z 17005KT 10/M08 A3008 RMK A01 T01021078  RH  027%=      5-min Rain = 0
KHO1 210133Z 17006KT 10/M08 A3008 RMK A01 T01021078  RH  027%=      5-min Rain = 0
KHO1 210134Z 17005KT 10/M08 A3008 RMK A01 T01021078  RH  027%=      5-min Rain = 0
KHO1 210135Z 17005KT 10/M08 A3008 RMK A01 T01011078  RH  028%=      5-min Rain = 0
KHO1 210136Z 17005KT 10/M08 A3008 RMK A01 T01011078  RH  028%=      5-min Rain = 0
KHO1 210137Z 16005KT 10/M08 A3008 RMK A01 T01011078  RH  027%=      5-min Rain = 0
KHO1 210138Z 16005KT 10/M08 A3008 RMK A01 T01011079  RH  027%=      5-min Rain = 0
KHO1 210139Z 17005KT 10/M08 A3008 RMK A01 T01011079  RH  027%=      5-min Rain = 0
KHO1 210140Z 17005KT 10/M08 A3008 RMK A01 T01021080  RH  027%=      5-min Rain = 0
KHO1 210141Z 16005KT 10/M08 A3008 RMK A01 T01031080  RH  027%=      5-min Rain = 0
KHO1 210142Z 16005KT 10/M08 A3008 RMK A01 T01021079  RH  027%=      5-min Rain = 0
KHO1 210143Z 16005KT 10/M08 A3008 RMK A01 T01011079  RH  027%=      5-min Rain = 0
KHO1 210144Z 16005KT 10/M08 A3008 RMK A01 T01001078  RH  028%=      5-min Rain = 0
KHO1 210145Z 16005KT 10/M08 A3008 RMK A01 T00991078  RH  028%=      5-min Rain = 0
KHO1 210146Z 16005KT 10/M08 A3008 RMK A01 T00981079  RH  028%=      5-min Rain = 0
KHO1 210147Z 16005KT 10/M08 A3008 RMK A01 T00981079  RH  028%=      5-min Rain = 0
KHO1 210148Z 16006KT 10/M08 A3008 RMK A01 T00991079  RH  028%=      5-min Rain = 0
KHO1 210149Z 16005KT 10/M08 A3008 RMK A01 T00991079  RH  028%=      5-min Rain = 0
KHO1 210150Z 16005KT 10/M08 A3008 RMK A01 T00991079  RH  028%=      5-min Rain = 0
KHO1 210151Z 16006KT 10/M08 A3008 RMK A01 T01001079  RH  028%=      5-min Rain = 0
KHO1 210152Z 16006KT 10/M08 A3008 RMK A01 T01001079  RH  028%=      5-min Rain = 0
KHO1 210153Z 16006KT 10/M08 A3008 RMK A01 T01001079  RH  027%=      5-min Rain = 0
KHO1 210154Z 16007KT 10/M08 A3008 RMK A01 T01001079  RH  027%=      5-min Rain = 0
KHO1 210155Z 16007KT 10/M08 A3007 RMK A01 T01001079  RH  027%=      5-min Rain = 0
KHO1 210156Z 16007KT 10/M08 A3007 RMK A01 T01001079  RH  028%=      5-min Rain = 0
KHO1 210157Z 16006KT 10/M08 A3007 RMK A01 T00991079  RH  028%=      5-min Rain = 0
KHO1 210158Z 16006KT 10/M08 A3007 RMK A01 T00991079  RH  028%=      5-min Rain = 0
KHO1 210159Z 16007KT 10/M08 A3008 RMK A01 T00991079  RH  028%=      5-min Rain = 0
KHO1 210200Z 16007KT 10/M08 A3008 RMK A01 T00991079  RH  028%=      5-min Rain = 0
KHO1 210201Z 16007KT 10/M08 A3008 RMK A01 T01001080  RH  027%=      5-min Rain = 0
KHO1 210202Z 17006KT 10/M08 A3008 RMK A01 T01021080  RH  027%=      5-min Rain = 0
KHO1 210203Z 16006KT 10/M08 A3008 RMK A01 T01021080  RH  027%=      5-min Rain = 0
KHO1 210204Z 17006KT 10/M08 A3008 RMK A01 T01011080  RH  027%=      5-min Rain = 0
KHO1 210205Z 17007KT 10/M08 A3008 RMK A01 T01021080  RH  027%=      5-min Rain = 0
KHO1 210206Z 17006KT 10/M08 A3008 RMK A01 T01021081  RH  027%=      5-min Rain = 0
KHO1 210207Z 17006KT 10/M08 A3008 RMK A01 T01031081  RH  027%=      5-min Rain = 0
KHO1 210208Z 17006KT 10/M08 A3007 RMK A01 T01031081  RH  027%=      5-min Rain = 0
KHO1 210209Z 17006KT 10/M08 A3007 RMK A01 T01021081  RH  027%=      5-min Rain = 0
KHO1 210210Z 17007KT 10/M08 A3007 RMK A01 T01021081  RH  027%=      5-min Rain = 0
KHO1 210211Z 17007KT 10/M08 A3007 RMK A01 T01021081  RH  027%=      5-min Rain = 0
KHO1 210212Z 17007KT 10/M08 A3007 RMK A01 T01021081  RH  027%=      5-min Rain = 0
KHO1 210213Z 17007KT 10/M08 A3007 RMK A01 T01021081  RH  027%=      5-min Rain = 0
KHO1 210214Z 17007KT 10/M08 A3007 RMK A01 T01021081  RH  027%=      5-min Rain = 0
KHO1 210215Z 17007KT 10/M08 A3007 RMK A01 T01021081  RH  027%=      5-min Rain = 0
KHO1 210216Z 17007KT 10/M08 A3007 RMK A01 T01021081  RH  027%=      5-min Rain = 0
KHO1 210217Z 17007KT 10/M08 A3007 RMK A01 T01021081  RH  027%=      5-min Rain = 0
KHO1 210218Z 17007KT 10/M08 A3007 RMK A01 T01011081  RH  027%=      5-min Rain = 0
KHO1 210219Z 17007KT 10/M08 A3007 RMK A01 T01011081  RH  027%=      5-min Rain = 0
KHO1 210220Z 17007KT 10/M08 A3007 RMK A01 T01011082  RH  027%=      5-min Rain = 0
KHO1 210221Z 17007KT 10/M08 A3007 RMK A01 T01011082  RH  027%=      5-min Rain = 0
KHO1 210222Z 17007KT 10/M08 A3007 RMK A01 T01001082  RH  027%=      5-min Rain = 0
KHO1 210223Z 17007KT 10/M08 A3007 RMK A01 T01001082  RH  027%=      5-min Rain = 0
KHO1 210224Z 17007KT 10/M08 A3006 RMK A01 T00991081  RH  027%=      5-min Rain = 0
KHO1 210225Z 17006KT 10/M08 A3006 RMK A01 T00971080  RH  028%=      5-min Rain = 0
KHO1 210226Z 16006KT 10/M08 A3006 RMK A01 T00951080  RH  028%=      5-min Rain = 0
KHO1 210227Z 16006KT 09/M08 A3006 RMK A01 T00941080  RH  028%=      5-min Rain = 0
KHO1 210228Z 16006KT 09/M08 A3006 RMK A01 T00941080  RH  029%=      5-min Rain = 0
KHO1 210229Z 16006KT 09/M08 A3006 RMK A01 T00941080  RH  029%=      5-min Rain = 0
KHO1 210230Z 16006KT 09/M08 A3006 RMK A01 T00931080  RH  029%=      5-min Rain = 0
KHO1 210231Z 16007KT 09/M08 A3006 RMK A01 T00941080  RH  028%=      5-min Rain = 0
KHO1 210232Z 16007KT 09/M08 A3006 RMK A01 T00941081  RH  028%=      5-min Rain = 0
KHO1 210233Z 16007KT 09/M08 A3006 RMK A01 T00941081  RH  028%=      5-min Rain = 0
KHO1 210234Z 16007KT 09/M08 A3006 RMK A01 T00941081  RH  028%=      5-min Rain = 0
KHO1 210235Z 16007KT 10/M08 A3006 RMK A01 T00951081  RH  028%=      5-min Rain = 0
KHO1 210236Z 16007KT 10/M08 A3006 RMK A01 T00951082  RH  028%=      5-min Rain = 0
KHO1 210237Z 17007KT 10/M08 A3005 RMK A01 T00961082  RH  028%=      5-min Rain = 0
KHO1 210238Z 17007KT 10/M08 A3005 RMK A01 T00961082  RH  028%=      5-min Rain = 0
KHO1 210239Z 17007KT 10/M08 A3005 RMK A01 T00961082  RH  027%=      5-min Rain = 0
KHO1 210240Z 17007KT 10/M08 A3005 RMK A01 T00961083  RH  027%=      5-min Rain = 0
KHO1 210241Z 17007KT 10/M08 A3005 RMK A01 T00971084  RH  027%=      5-min Rain = 0
KHO1 210242Z 17008KT 10/M08 A3005 RMK A01 T00981084  RH  027%=      5-min Rain = 0
KHO1 210243Z 17007KT 10/M08 A3005 RMK A01 T00981084  RH  027%=      5-min Rain = 0
KHO1 210244Z 17007KT 10/M08 A3005 RMK A01 T00971084  RH  027%=      5-min Rain = 0
KHO1 210245Z 17008KT 10/M08 A3005 RMK A01 T00971084  RH  027%=      5-min Rain = 0
KHO1 210246Z 17008KT 10/M08 A3005 RMK A01 T00971084  RH  027%=      5-min Rain = 0
KHO1 210247Z 17008KT 10/M09 A3005 RMK A01 T00971085  RH  027%=      5-min Rain = 0
KHO1 210248Z 17008KT 10/M09 A3005 RMK A01 T00971085  RH  027%=      5-min Rain = 0
KHO1 210249Z 17008KT 10/M09 A3005 RMK A01 T00971085  RH  027%=      5-min Rain = 0
KHO1 210250Z 17007KT 10/M09 A3005 RMK A01 T00971085  RH  027%=      5-min Rain = 0
KHO1 210251Z 17008KT 10/M09 A3005 RMK A01 T00971085  RH  027%=      5-min Rain = 0
KHO1 210252Z 17008KT 10/M09 A3005 RMK A01 T00961085  RH  027%=      5-min Rain = 0
KHO1 210253Z 17008KT 10/M09 A3005 RMK A01 T00971085  RH  027%=      5-min Rain = 0
KHO1 210254Z 17008KT 10/M09 A3005 RMK A01 T00971085  RH  027%=      5-min Rain = 0
KHO1 210255Z 17009KT 10/M09 A3005 RMK A01 T00961086  RH  027%=      5-min Rain = 0
KHO1 210256Z 17008KT 10/M09 A3005 RMK A01 T00971086  RH  027%=      5-min Rain = 0
KHO1 210257Z 17008KT 10/M09 A3005 RMK A01 T00971086  RH  027%=      5-min Rain = 0
KHO1 210258Z 17009KT 10/M09 A3005 RMK A01 T00971087  RH  026%=      5-min Rain = 0
KHO1 210259Z 17009KT 10/M09 A3005 RMK A01 T00971087  RH  026%=      5-min Rain = 0
KHO1 210300Z 17009KT 10/M09 A3005 RMK A01 T00971087  RH  026%=      5-min Rain = 0
KHO1 210301Z 18008KT 10/M09 A3005 RMK A01 T00971087  RH  026%=      5-min Rain = 0
KHO1 210302Z 17008KT 10/M09 A3005 RMK A01 T00961087  RH  027%=      5-min Rain = 0
KHO1 210303Z 18008KT 10/M09 A3005 RMK A01 T00961087  RH  027%=      5-min Rain = 0
KHO1 210304Z 18008KT 10/M09 A3005 RMK A01 T00951087  RH  027%=      5-min Rain = 0
KHO1 210305Z 18009KT 10/M09 A3005 RMK A01 T00951087  RH  027%=      5-min Rain = 0
KHO1 210306Z 18008KT 10/M09 A3005 RMK A01 T00951087  RH  027%=      5-min Rain = 0
KHO1 210307Z 18008KT 10/M09 A3005 RMK A01 T00951087  RH  027%=      5-min Rain = 0
KHO1 210308Z 18008KT 09/M09 A3005 RMK A01 T00941087  RH  027%=      5-min Rain = 0
KHO1 210309Z 18009KT 09/M09 A3005 RMK A01 T00941087  RH  027%=      5-min Rain = 0
KHO1 210310Z 18009KT 09/M09 A3005 RMK A01 T00931088  RH  027%=      5-min Rain = 0
KHO1 210311Z 18009KT 09/M09 A3005 RMK A01 T00931088  RH  027%=      5-min Rain = 0
KHO1 210312Z 18009KT 09/M09 A3005 RMK A01 T00931088  RH  027%=      5-min Rain = 0
KHO1 210313Z 18009KT 09/M09 A3005 RMK A01 T00921088  RH  027%=      5-min Rain = 0
KHO1 210314Z 18009KT 09/M09 A3005 RMK A01 T00921088  RH  027%=      5-min Rain = 0
KHO1 210315Z 18010KT 09/M09 A3005 RMK A01 T00921088  RH  027%=      5-min Rain = 0
KHO1 210316Z 18009KT 09/M09 A3005 RMK A01 T00911088  RH  027%=      5-min Rain = 0
KHO1 210317Z 18009KT 09/M09 A3005 RMK A01 T00911088  RH  027%=      5-min Rain = 0
KHO1 210318Z 18010KT 09/M09 A3005 RMK A01 T00911088  RH  027%=      5-min Rain = 0
KHO1 210319Z 18008KT 09/M09 A3005 RMK A01 T00901088  RH  027%=      5-min Rain = 0
KHO1 210320Z 18009KT 09/M09 A3005 RMK A01 T00901088  RH  028%=      5-min Rain = 0
KHO1 210321Z 18009KT 09/M09 A3005 RMK A01 T00891088  RH  028%=      5-min Rain = 0
KHO1 210322Z 18008KT 09/M09 A3005 RMK A01 T00891088  RH  028%=      5-min Rain = 0
KHO1 210323Z 19009KT 09/M09 A3005 RMK A01 T00901088  RH  028%=      5-min Rain = 0
KHO1 210324Z 18008KT 09/M09 A3005 RMK A01 T00901088  RH  028%=      5-min Rain = 0
KHO1 210325Z 19008KT 09/M09 A3005 RMK A01 T00881087  RH  028%=      5-min Rain = 0
KHO1 210326Z 19008KT 09/M09 A3005 RMK A01 T00871087  RH  028%=      5-min Rain = 0
KHO1 210327Z 19008KT 09/M09 A3005 RMK A01 T00871087  RH  028%=      5-min Rain = 0
KHO1 210328Z 19007KT 09/M09 A3005 RMK A01 T00851087  RH  029%=      5-min Rain = 0
KHO1 210329Z 19007KT 08/M09 A3005 RMK A01 T00841087  RH  029%=      5-min Rain = 0
KHO1 210330Z 19008KT 09/M09 A3005 RMK A01 T00851087  RH  029%=      5-min Rain = 0
KHO1 210331Z 19008KT 08/M09 A3005 RMK A01 T00841087  RH  029%=      5-min Rain = 0
KHO1 210332Z 19007KT 08/M09 A3005 RMK A01 T00831087  RH  029%=      5-min Rain = 0
KHO1 210333Z 19007KT 08/M09 A3005 RMK A01 T00831087  RH  029%=      5-min Rain = 0
KHO1 210334Z 19007KT 08/M09 A3005 RMK A01 T00821088  RH  029%=      5-min Rain = 0
KHO1 210335Z 19007KT 08/M09 A3005 RMK A01 T00821087  RH  029%=      5-min Rain = 0
KHO1 210336Z 19008KT 08/M09 A3005 RMK A01 T00821088  RH  029%=      5-min Rain = 0
KHO1 210337Z 19007KT 08/M09 A3005 RMK A01 T00811087  RH  029%=      5-min Rain = 0
KHO1 210338Z 19006KT 08/M09 A3005 RMK A01 T00801087  RH  029%=      5-min Rain = 0
KHO1 210339Z 19006KT 08/M09 A3005 RMK A01 T00791087  RH  030%=      5-min Rain = 0
KHO1 210340Z 19006KT 08/M09 A3005 RMK A01 T00791087  RH  030%=      5-min Rain = 0
KHO1 210341Z 19006KT 08/M09 A3005 RMK A01 T00771087  RH  030%=      5-min Rain = 0
KHO1 210342Z 18006KT 08/M09 A3005 RMK A01 T00771087  RH  030%=      5-min Rain = 0
KHO1 210343Z 19006KT 08/M09 A3005 RMK A01 T00771087  RH  030%=      5-min Rain = 0
KHO1 210344Z 19006KT 08/M09 A3004 RMK A01 T00761087  RH  030%=      5-min Rain = 0
KHO1 210345Z 19006KT 08/M09 A3005 RMK A01 T00761087  RH  030%=      5-min Rain = 0
KHO1 210346Z 19007KT 08/M09 A3004 RMK A01 T00761087  RH  031%=      5-min Rain = 0
KHO1 210347Z 19007KT 08/M09 A3004 RMK A01 T00751087  RH  031%=      5-min Rain = 0
KHO1 210348Z 19007KT 08/M09 A3004 RMK A01 T00751087  RH  031%=      5-min Rain = 0
KHO1 210349Z 18007KT 07/M09 A3005 RMK A01 T00741086  RH  031%=      5-min Rain = 0
KHO1 210350Z 19007KT 07/M09 A3005 RMK A01 T00741086  RH  031%=      5-min Rain = 0
KHO1 210351Z 19007KT 07/M09 A3005 RMK A01 T00741086  RH  031%=      5-min Rain = 0
KHO1 210352Z 19007KT 07/M09 A3005 RMK A01 T00741086  RH  031%=      5-min Rain = 0
KHO1 210353Z 19007KT 07/M09 A3005 RMK A01 T00741086  RH  031%=      5-min Rain = 0
KHO1 210354Z 18007KT 07/M09 A3005 RMK A01 T00741086  RH  031%=      5-min Rain = 0
KHO1 210355Z 18007KT 07/M09 A3005 RMK A01 T00741086  RH  031%=      5-min Rain = 0
KHO1 210356Z 18008KT 08/M09 A3005 RMK A01 T00751086  RH  031%=      5-min Rain = 0
KHO1 210357Z 18008KT 08/M09 A3005 RMK A01 T00751086  RH  031%=      5-min Rain = 0
KHO1 210358Z 18008KT 08/M09 A3005 RMK A01 T00751086  RH  031%=      5-min Rain = 0
KHO1 210359Z 18008KT 08/M09 A3005 RMK A01 T00771087  RH  030%=      5-min Rain = 0
KHO1 210400Z 19008KT 08/M09 A3005 RMK A01 T00781087  RH  030%=      5-min Rain = 0
KHO1 210401Z 19007KT 08/M09 A3005 RMK A01 T00791087  RH  030%=      5-min Rain = 0
KHO1 210402Z 19008KT 08/M09 A3005 RMK A01 T00781087  RH  030%=      5-min Rain = 0
KHO1 210403Z 19008KT 08/M09 A3005 RMK A01 T00781087  RH  030%=      5-min Rain = 0
KHO1 210404Z 19007KT 08/M09 A3005 RMK A01 T00771087  RH  030%=      5-min Rain = 0
KHO1 210405Z 19008KT 08/M09 A3005 RMK A01 T00771088  RH  030%=      5-min Rain = 0
KHO1 210406Z 19007KT 08/M09 A3005 RMK A01 T00771088  RH  030%=      5-min Rain = 0
KHO1 210407Z 18007KT 08/M09 A3005 RMK A01 T00771087  RH  030%=      5-min Rain = 0
KHO1 210408Z 19007KT 08/M09 A3005 RMK A01 T00751088  RH  031%=      5-min Rain = 0
KHO1 210409Z 19007KT 07/M09 A3005 RMK A01 T00731087  RH  031%=      5-min Rain = 0
KHO1 210410Z 19006KT 07/M09 A3005 RMK A01 T00711087  RH  031%=      5-min Rain = 0
KHO1 210411Z 19007KT 07/M09 A3005 RMK A01 T00701087  RH  032%=      5-min Rain = 0
KHO1 210412Z 19007KT 07/M09 A3005 RMK A01 T00681087  RH  032%=      5-min Rain = 0
KHO1 210413Z 19007KT 07/M09 A3005 RMK A01 T00671087  RH  032%=      5-min Rain = 0
KHO1 210414Z 19007KT 07/M09 A3005 RMK A01 T00671087  RH  032%=      5-min Rain = 0
KHO1 210415Z 19008KT 07/M09 A3005 RMK A01 T00661087  RH  033%=      5-min Rain = 0
KHO1 210416Z 19007KT 07/M09 A3005 RMK A01 T00651087  RH  033%=      5-min Rain = 0
KHO1 210417Z 19007KT 07/M09 A3005 RMK A01 T00651086  RH  033%=      5-min Rain = 0
KHO1 210418Z 19007KT 07/M09 A3005 RMK A01 T00651086  RH  033%=      5-min Rain = 0
KHO1 210419Z 19007KT 07/M09 A3005 RMK A01 T00651086  RH  033%=      5-min Rain = 0
KHO1 210420Z 19007KT 07/M09 A3005 RMK A01 T00651086  RH  033%=      5-min Rain = 0
KHO1 210421Z 19007KT 07/M09 A3005 RMK A01 T00661086  RH  033%=      5-min Rain = 0
KHO1 210422Z 19006KT 07/M09 A3005 RMK A01 T00651086  RH  033%=      5-min Rain = 0
KHO1 210423Z 19007KT 07/M09 A3005 RMK A01 T00661086  RH  033%=      5-min Rain = 0
KHO1 210424Z 19006KT 07/M09 A3005 RMK A01 T00661086  RH  033%=      5-min Rain = 0
KHO1 210425Z 18006KT 07/M09 A3005 RMK A01 T00661086  RH  033%=      5-min Rain = 0
KHO1 210426Z 19005KT 07/M09 A3005 RMK A01 T00651086  RH  033%=      5-min Rain = 0
KHO1 210427Z 19005KT 07/M09 A3005 RMK A01 T00651085  RH  033%=      5-min Rain = 0
KHO1 210428Z 18005KT 07/M09 A3005 RMK A01 T00651085  RH  033%=      5-min Rain = 0
KHO1 210429Z 19005KT 06/M09 A3005 RMK A01 T00641085  RH  034%=      5-min Rain = 0
KHO1 210430Z 18005KT 06/M09 A3005 RMK A01 T00631085  RH  034%=      5-min Rain = 0
KHO1 210431Z 19006KT 06/M09 A3005 RMK A01 T00631085  RH  034%=      5-min Rain = 0
KHO1 210432Z 19007KT 06/M08 A3005 RMK A01 T00641084  RH  034%=      5-min Rain = 0
KHO1 210433Z 19007KT 06/M08 A3006 RMK A01 T00641084  RH  034%=      5-min Rain = 0
KHO1 210434Z 18007KT 07/M08 A3006 RMK A01 T00651084  RH  034%=      5-min Rain = 0
KHO1 210435Z 18007KT 07/M08 A3006 RMK A01 T00651083  RH  034%=      5-min Rain = 0
KHO1 210436Z 18007KT 07/M08 A3005 RMK A01 T00651082  RH  034%=      5-min Rain = 0
KHO1 210437Z 18006KT 07/M08 A3005 RMK A01 T00661082  RH  034%=      5-min Rain = 0
KHO1 210438Z 18006KT 07/M08 A3005 RMK A01 T00671082  RH  034%=      5-min Rain = 0
KHO1 210439Z 18006KT 07/M08 A3005 RMK A01 T00671082  RH  034%=      5-min Rain = 0
KHO1 210440Z 18006KT 07/M08 A3005 RMK A01 T00671082  RH  034%=      5-min Rain = 0
KHO1 210441Z 18006KT 07/M08 A3005 RMK A01 T00661081  RH  034%=      5-min Rain = 0
KHO1 210442Z 18006KT 07/M08 A3005 RMK A01 T00661081  RH  034%=      5-min Rain = 0
KHO1 210443Z 19006KT 07/M08 A3005 RMK A01 T00661081  RH  034%=      5-min Rain = 0
KHO1 210444Z 19007KT 07/M08 A3005 RMK A01 T00651081  RH  034%=      5-min Rain = 0
KHO1 210445Z 19006KT 06/M08 A3005 RMK A01 T00641081  RH  035%=      5-min Rain = 0
KHO1 210446Z 19006KT 06/M08 A3005 RMK A01 T00631081  RH  035%=      5-min Rain = 0
KHO1 210447Z 19006KT 06/M08 A3005 RMK A01 T00611081  RH  035%=      5-min Rain = 0
KHO1 210448Z 19006KT 06/M08 A3005 RMK A01 T00591080  RH  036%=      5-min Rain = 0
KHO1 210449Z 19007KT 06/M08 A3005 RMK A01 T00581080  RH  036%=      5-min Rain = 0
KHO1 210450Z 19007KT 06/M08 A3005 RMK A01 T00581078  RH  037%=      5-min Rain = 0
KHO1 210451Z 19007KT 06/M08 A3005 RMK A01 T00581077  RH  037%=      5-min Rain = 0
KHO1 210452Z 20007KT 06/M08 A3005 RMK A01 T00571077  RH  037%=      5-min Rain = 0
KHO1 210453Z 20007KT 06/M08 A3005 RMK A01 T00571076  RH  038%=      5-min Rain = 0
KHO1 210454Z 20007KT 06/M08 A3005 RMK A01 T00561076  RH  038%=      5-min Rain = 0
KHO1 210455Z 20007KT 06/M08 A3005 RMK A01 T00561076  RH  038%=      5-min Rain = 0
KHO1 210456Z 20007KT 06/M08 A3005 RMK A01 T00551076  RH  038%=      5-min Rain = 0
KHO1 210457Z 20007KT 06/M08 A3005 RMK A01 T00551076  RH  038%=      5-min Rain = 0
KHO1 210458Z 19007KT 05/M08 A3005 RMK A01 T00541076  RH  038%=      5-min Rain = 0
KHO1 210459Z 19007KT 05/M08 A3005 RMK A01 T00541077  RH  038%=      5-min Rain = 0
KHO1 210500Z 20006KT 05/M08 A3005 RMK A01 T00531077  RH  038%=      5-min Rain = 0
KHO1 210501Z 19006KT 05/M08 A3005 RMK A01 T00521077  RH  039%=      5-min Rain = 0
KHO1 210502Z 19006KT 05/M08 A3005 RMK A01 T00511078  RH  039%=      5-min Rain = 0
KHO1 210503Z 20007KT 05/M08 A3005 RMK A01 T00501078  RH  039%=      5-min Rain = 0
KHO1 210504Z 20007KT 05/M08 A3005 RMK A01 T00491079  RH  039%=      5-min Rain = 0
KHO1 210505Z 20007KT 05/M08 A3005 RMK A01 T00481079  RH  039%=      5-min Rain = 0
KHO1 210506Z 20007KT 05/M08 A3005 RMK A01 T00481079  RH  039%=      5-min Rain = 0
KHO1 210507Z 20007KT 05/M08 A3005 RMK A01 T00471079  RH  040%=      5-min Rain = 0
KHO1 210508Z 20007KT 05/M08 A3005 RMK A01 T00461079  RH  040%=      5-min Rain = 0
KHO1 210509Z 20007KT 05/M08 A3005 RMK A01 T00461078  RH  040%=      5-min Rain = 0
KHO1 210510Z 20007KT 05/M08 A3005 RMK A01 T00451078  RH  041%=      5-min Rain = 0
KHO1 210511Z 20006KT 04/M08 A3005 RMK A01 T00441077  RH  041%=      5-min Rain = 0
KHO1 210512Z 19007KT 04/M08 A3005 RMK A01 T00441077  RH  041%=      5-min Rain = 0
KHO1 210513Z 19006KT 04/M08 A3005 RMK A01 T00441077  RH  041%=      5-min Rain = 0
KHO1 210514Z 19006KT 04/M08 A3005 RMK A01 T00431077  RH  041%=      5-min Rain = 0
KHO1 210515Z 19007KT 04/M08 A3005 RMK A01 T00431077  RH  042%=      5-min Rain = 0
KHO1 210516Z 19007KT 04/M08 A3005 RMK A01 T00421076  RH  042%=      5-min Rain = 0
KHO1 210517Z 19007KT 04/M08 A3005 RMK A01 T00411076  RH  042%=      5-min Rain = 0
KHO1 210518Z 19007KT 04/M08 A3005 RMK A01 T00401076  RH  043%=      5-min Rain = 0
KHO1 210519Z 19008KT 04/M08 A3005 RMK A01 T00401075  RH  043%=      5-min Rain = 0
KHO1 210520Z 19008KT 04/M07 A3005 RMK A01 T00391074  RH  043%=      5-min Rain = 0
KHO1 210521Z 19008KT 04/M07 A3005 RMK A01 T00401074  RH  043%=      5-min Rain = 0
KHO1 210522Z 19007KT 04/M07 A3005 RMK A01 T00411073  RH  043%=      5-min Rain = 0
KHO1 210523Z 19007KT 04/M07 A3005 RMK A01 T00421073  RH  043%=      5-min Rain = 0
KHO1 210524Z 19007KT 04/M07 A3005 RMK A01 T00421073  RH  043%=      5-min Rain = 0
KHO1 210525Z 19006KT 04/M07 A3005 RMK A01 T00431073  RH  043%=      5-min Rain = 0
KHO1 210526Z 19006KT 04/M07 A3005 RMK A01 T00431073  RH  043%=      5-min Rain = 0
KHO1 210527Z 20006KT 04/M07 A3005 RMK A01 T00431073  RH  043%=      5-min Rain = 0
KHO1 210528Z 20006KT 04/M07 A3005 RMK A01 T00431073  RH  043%=      5-min Rain = 0
KHO1 210529Z 20006KT 04/M07 A3005 RMK A01 T00421073  RH  043%=      5-min Rain = 0
KHO1 210530Z 20006KT 04/M07 A3005 RMK A01 T00421073  RH  043%=      5-min Rain = 0
KHO1 210531Z 20006KT 04/M07 A3005 RMK A01 T00411074  RH  043%=      5-min Rain = 0
KHO1 210532Z 20006KT 04/M07 A3005 RMK A01 T00401074  RH  043%=      5-min Rain = 0
KHO1 210533Z 20006KT 04/M08 A3005 RMK A01 T00391075  RH  043%=      5-min Rain = 0
KHO1 210534Z 20005KT 04/M08 A3005 RMK A01 T00381075  RH  043%=      5-min Rain = 0
KHO1 210535Z 20005KT 04/M08 A3005 RMK A01 T00371075  RH  044%=      5-min Rain = 0
KHO1 210536Z 20005KT 04/M08 A3005 RMK A01 T00381075  RH  044%=      5-min Rain = 0
KHO1 210537Z 19006KT 04/M08 A3004 RMK A01 T00381075  RH  044%=      5-min Rain = 0
KHO1 210538Z 19006KT 04/M08 A3004 RMK A01 T00381075  RH  044%=      5-min Rain = 0
KHO1 210539Z 20006KT 04/M08 A3004 RMK A01 T00381075  RH  043%=      5-min Rain = 0
KHO1 210540Z 20005KT 04/M08 A3004 RMK A01 T00381075  RH  043%=      5-min Rain = 0
KHO1 210541Z 20006KT 04/M08 A3004 RMK A01 T00381076  RH  043%=      5-min Rain = 0
KHO1 210542Z 19006KT 04/M08 A3004 RMK A01 T00381076  RH  043%=      5-min Rain = 0
KHO1 210543Z 19006KT 04/M08 A3004 RMK A01 T00381076  RH  043%=      5-min Rain = 0
KHO1 210544Z 19005KT 04/M08 A3004 RMK A01 T00381077  RH  043%=      5-min Rain = 0
KHO1 210545Z 20005KT 04/M08 A3004 RMK A01 T00371077  RH  043%=      5-min Rain = 0
KHO1 210546Z 20005KT 04/M08 A3004 RMK A01 T00371077  RH  043%=      5-min Rain = 0
KHO1 210547Z 20006KT 04/M08 A3004 RMK A01 T00381077  RH  043%=      5-min Rain = 0
KHO1 210548Z 20005KT 04/M08 A3004 RMK A01 T00381077  RH  043%=      5-min Rain = 0
KHO1 210549Z 20006KT 04/M08 A3004 RMK A01 T00381077  RH  043%=      5-min Rain = 0
KHO1 210550Z 20005KT 04/M08 A3005 RMK A01 T00381078  RH  043%=      5-min Rain = 0
KHO1 210551Z 20006KT 04/M08 A3005 RMK A01 T00381078  RH  042%=      5-min Rain = 0
KHO1 210552Z 20006KT 04/M08 A3005 RMK A01 T00381078  RH  043%=      5-min Rain = 0
KHO1 210553Z 20006KT 04/M08 A3004 RMK A01 T00371078  RH  043%=      5-min Rain = 0
KHO1 210554Z 20005KT 04/M08 A3004 RMK A01 T00361077  RH  043%=      5-min Rain = 0
KHO1 210555Z 21006KT 04/M08 A3004 RMK A01 T00351077  RH  044%=      5-min Rain = 0
KHO1 210556Z 21006KT 04/M08 A3004 RMK A01 T00351076  RH  044%=      5-min Rain = 0
KHO1 210557Z 20006KT 04/M07 A3004 RMK A01 T00351074  RH  045%=      5-min Rain = 0
KHO1 210558Z 20006KT 03/M07 A3005 RMK A01 T00341073  RH  045%=      5-min Rain = 0
KHO1 210559Z 21006KT 03/M07 A3005 RMK A01 T00341071  RH  046%=      5-min Rain = 0

Page generated in 0.0832 seconds.